<?xml version="1.0" encoding="UTF-8" standalone="no" ?>
<gpx xmlns="http://www.topografix.com/GPX/1/1" xmlns:xsi="http://www.w3.org/2001/XMLSchema-instance" xsi:schemaLocation="http://www.topografix.com/GPX/1/1 http://www.topografix.com/GPX/1/1/gpx.xsd" version="1.1" creator="VisuGPX - https://www.visugpx.com">
  <metadata>
    <name>228_Circuit 77 km Les Herbiers_Les Herbiers édité par cth85.com</name>
    <desc><![CDATA[Circuit de 77 km passant par:
Les Herbiers
D11 Mesnard la Barotière
D11 Saint Fulgent
D37 Bazoges en Paillers
D6 direction La Gaubtretière,
D27 Chambretaud
le bois niard , direction D72
à gauche, première à droite
la petite, la grande brosse, D111
à droite, Saint Laurent sur Sèvre
D752 Saint Malo du Bois
D72 direction Mallièvre
D11 Les Epesses
D79 Saint mars la Réorthe
D79 la croix bara, Saint paul en Pareds
D23 Les Herbiers]]></desc>
  </metadata>
  <trk>
    <name><![CDATA[15493217-77_228]]></name>
    <trkseg>
      <trkpt lat="46.86368" lon="-1.00577">
        <ele>120</ele>
        <time>2022-09-05T08:17:13Z</time>
      </trkpt>
      <trkpt lat="46.86381" lon="-1.00562">
        <ele>120</ele>
        <time>2022-09-05T08:17:16Z</time>
      </trkpt>
      <trkpt lat="46.86391" lon="-1.00556">
        <ele>120</ele>
        <time>2022-09-05T08:17:18Z</time>
      </trkpt>
      <trkpt lat="46.86426" lon="-1.00564">
        <ele>120</ele>
        <time>2022-09-05T08:17:24Z</time>
      </trkpt>
      <trkpt lat="46.86461" lon="-1.00561">
        <ele>120</ele>
        <time>2022-09-05T08:17:30Z</time>
      </trkpt>
      <trkpt lat="46.86495" lon="-1.00567">
        <ele>119</ele>
        <time>2022-09-05T08:17:37Z</time>
      </trkpt>
      <trkpt lat="46.86523" lon="-1.00577">
        <ele>118</ele>
        <time>2022-09-05T08:17:42Z</time>
      </trkpt>
      <trkpt lat="46.86573" lon="-1.00609">
        <ele>117</ele>
        <time>2022-09-05T08:17:51Z</time>
      </trkpt>
      <trkpt lat="46.86595" lon="-1.00621">
        <ele>116</ele>
        <time>2022-09-05T08:17:56Z</time>
      </trkpt>
      <trkpt lat="46.86664" lon="-1.00646">
        <ele>111</ele>
        <time>2022-09-05T08:18:08Z</time>
      </trkpt>
      <trkpt lat="46.86708" lon="-1.0066">
        <ele>111</ele>
        <time>2022-09-05T08:18:16Z</time>
      </trkpt>
      <trkpt lat="46.86712" lon="-1.00666">
        <ele>111</ele>
        <time>2022-09-05T08:18:17Z</time>
      </trkpt>
      <trkpt lat="46.86714" lon="-1.00674">
        <ele>111</ele>
        <time>2022-09-05T08:18:18Z</time>
      </trkpt>
      <trkpt lat="46.86765" lon="-1.00654">
        <ele>111</ele>
        <time>2022-09-05T08:18:28Z</time>
      </trkpt>
      <trkpt lat="46.86836" lon="-1.00634">
        <ele>112</ele>
        <time>2022-09-05T08:18:40Z</time>
      </trkpt>
      <trkpt lat="46.86853" lon="-1.00633">
        <ele>112</ele>
        <time>2022-09-05T08:18:44Z</time>
      </trkpt>
      <trkpt lat="46.86937" lon="-1.00661">
        <ele>109</ele>
        <time>2022-09-05T08:18:59Z</time>
      </trkpt>
      <trkpt lat="46.86948" lon="-1.00671">
        <ele>109</ele>
        <time>2022-09-05T08:19:01Z</time>
      </trkpt>
      <trkpt lat="46.86983" lon="-1.00859">
        <ele>105</ele>
        <time>2022-09-05T08:19:25Z</time>
      </trkpt>
      <trkpt lat="46.86999" lon="-1.00914">
        <ele>103</ele>
        <time>2022-09-05T08:19:32Z</time>
      </trkpt>
      <trkpt lat="46.86998" lon="-1.00924">
        <ele>103</ele>
        <time>2022-09-05T08:19:33Z</time>
      </trkpt>
      <trkpt lat="46.87003" lon="-1.00927">
        <ele>103</ele>
        <time>2022-09-05T08:19:34Z</time>
      </trkpt>
      <trkpt lat="46.87003" lon="-1.00933">
        <ele>103</ele>
        <time>2022-09-05T08:19:35Z</time>
      </trkpt>
      <trkpt lat="46.87001" lon="-1.00935">
        <ele>103</ele>
        <time>2022-09-05T08:19:35Z</time>
      </trkpt>
      <trkpt lat="46.87006" lon="-1.00942">
        <ele>102</ele>
        <time>2022-09-05T08:19:37Z</time>
      </trkpt>
      <trkpt lat="46.8704" lon="-1.0106">
        <ele>102</ele>
        <time>2022-09-05T08:19:52Z</time>
      </trkpt>
      <trkpt lat="46.87064" lon="-1.01137">
        <ele>103</ele>
        <time>2022-09-05T08:20:03Z</time>
      </trkpt>
      <trkpt lat="46.87114" lon="-1.01307">
        <ele>108</ele>
        <time>2022-09-05T08:20:25Z</time>
      </trkpt>
      <trkpt lat="46.87115" lon="-1.0132">
        <ele>108</ele>
        <time>2022-09-05T08:20:27Z</time>
      </trkpt>
      <trkpt lat="46.87143" lon="-1.01312">
        <ele>109</ele>
        <time>2022-09-05T08:20:32Z</time>
      </trkpt>
      <trkpt lat="46.87211" lon="-1.01301">
        <ele>110</ele>
        <time>2022-09-05T08:20:44Z</time>
      </trkpt>
      <trkpt lat="46.8728" lon="-1.01272">
        <ele>110</ele>
        <time>2022-09-05T08:20:57Z</time>
      </trkpt>
      <trkpt lat="46.87288" lon="-1.01272">
        <ele>110</ele>
        <time>2022-09-05T08:20:58Z</time>
      </trkpt>
      <trkpt lat="46.87295" lon="-1.01275">
        <ele>110</ele>
        <time>2022-09-05T08:20:59Z</time>
      </trkpt>
      <trkpt lat="46.87303" lon="-1.01285">
        <ele>110</ele>
        <time>2022-09-05T08:21:01Z</time>
      </trkpt>
      <trkpt lat="46.87307" lon="-1.01302">
        <ele>111</ele>
        <time>2022-09-05T08:21:03Z</time>
      </trkpt>
      <trkpt lat="46.87325" lon="-1.01387">
        <ele>113</ele>
        <time>2022-09-05T08:21:14Z</time>
      </trkpt>
      <trkpt lat="46.87325" lon="-1.01397">
        <ele>113</ele>
        <time>2022-09-05T08:21:16Z</time>
      </trkpt>
      <trkpt lat="46.87329" lon="-1.0141">
        <ele>114</ele>
        <time>2022-09-05T08:21:17Z</time>
      </trkpt>
      <trkpt lat="46.87343" lon="-1.01481">
        <ele>115</ele>
        <time>2022-09-05T08:21:26Z</time>
      </trkpt>
      <trkpt lat="46.87337" lon="-1.01488">
        <ele>115</ele>
        <time>2022-09-05T08:21:28Z</time>
      </trkpt>
      <trkpt lat="46.87317" lon="-1.01498">
        <ele>115</ele>
        <time>2022-09-05T08:21:31Z</time>
      </trkpt>
      <trkpt lat="46.87283" lon="-1.0151">
        <ele>115</ele>
        <time>2022-09-05T08:21:38Z</time>
      </trkpt>
      <trkpt lat="46.87204" lon="-1.01532">
        <ele>113</ele>
        <time>2022-09-05T08:21:52Z</time>
      </trkpt>
      <trkpt lat="46.87197" lon="-1.01537">
        <ele>113</ele>
        <time>2022-09-05T08:21:53Z</time>
      </trkpt>
      <trkpt lat="46.87107" lon="-1.01537">
        <ele>109</ele>
        <time>2022-09-05T08:22:09Z</time>
      </trkpt>
      <trkpt lat="46.87103" lon="-1.01544">
        <ele>108</ele>
        <time>2022-09-05T08:22:10Z</time>
      </trkpt>
      <trkpt lat="46.87077" lon="-1.017">
        <ele>110</ele>
        <time>2022-09-05T08:22:30Z</time>
      </trkpt>
      <trkpt lat="46.87079" lon="-1.01701">
        <ele>111</ele>
        <time>2022-09-05T08:22:30Z</time>
      </trkpt>
      <trkpt lat="46.87081" lon="-1.01707">
        <ele>111</ele>
        <time>2022-09-05T08:22:31Z</time>
      </trkpt>
      <trkpt lat="46.87078" lon="-1.01712">
        <ele>111</ele>
        <time>2022-09-05T08:22:32Z</time>
      </trkpt>
      <trkpt lat="46.87075" lon="-1.01712">
        <ele>110</ele>
        <time>2022-09-05T08:22:32Z</time>
      </trkpt>
      <trkpt lat="46.87074" lon="-1.01715">
        <ele>110</ele>
        <time>2022-09-05T08:22:33Z</time>
      </trkpt>
      <trkpt lat="46.87038" lon="-1.01927">
        <ele>108</ele>
        <time>2022-09-05T08:22:59Z</time>
      </trkpt>
      <trkpt lat="46.87023" lon="-1.0204">
        <ele>108</ele>
        <time>2022-09-05T08:23:13Z</time>
      </trkpt>
      <trkpt lat="46.87011" lon="-1.02077">
        <ele>107</ele>
        <time>2022-09-05T08:23:18Z</time>
      </trkpt>
      <trkpt lat="46.87003" lon="-1.02097">
        <ele>107</ele>
        <time>2022-09-05T08:23:21Z</time>
      </trkpt>
      <trkpt lat="46.87008" lon="-1.02102">
        <ele>107</ele>
        <time>2022-09-05T08:23:22Z</time>
      </trkpt>
      <trkpt lat="46.8701" lon="-1.02108">
        <ele>107</ele>
        <time>2022-09-05T08:23:23Z</time>
      </trkpt>
      <trkpt lat="46.87007" lon="-1.02146">
        <ele>107</ele>
        <time>2022-09-05T08:23:28Z</time>
      </trkpt>
      <trkpt lat="46.87006" lon="-1.02207">
        <ele>106</ele>
        <time>2022-09-05T08:23:35Z</time>
      </trkpt>
      <trkpt lat="46.8701" lon="-1.02264">
        <ele>105</ele>
        <time>2022-09-05T08:23:42Z</time>
      </trkpt>
      <trkpt lat="46.8703" lon="-1.02394">
        <ele>104</ele>
        <time>2022-09-05T08:23:58Z</time>
      </trkpt>
      <trkpt lat="46.87043" lon="-1.02436">
        <ele>103</ele>
        <time>2022-09-05T08:24:04Z</time>
      </trkpt>
      <trkpt lat="46.87103" lon="-1.0259">
        <ele>100</ele>
        <time>2022-09-05T08:24:26Z</time>
      </trkpt>
      <trkpt lat="46.87116" lon="-1.02635">
        <ele>99</ele>
        <time>2022-09-05T08:24:32Z</time>
      </trkpt>
      <trkpt lat="46.87133" lon="-1.02668">
        <ele>98</ele>
        <time>2022-09-05T08:24:37Z</time>
      </trkpt>
      <trkpt lat="46.87154" lon="-1.02681">
        <ele>98</ele>
        <time>2022-09-05T08:24:41Z</time>
      </trkpt>
      <trkpt lat="46.87164" lon="-1.02682">
        <ele>98</ele>
        <time>2022-09-05T08:24:42Z</time>
      </trkpt>
      <trkpt lat="46.8717" lon="-1.02688">
        <ele>98</ele>
        <time>2022-09-05T08:24:44Z</time>
      </trkpt>
      <trkpt lat="46.87175" lon="-1.02696">
        <ele>98</ele>
        <time>2022-09-05T08:24:45Z</time>
      </trkpt>
      <trkpt lat="46.87178" lon="-1.02713">
        <ele>97</ele>
        <time>2022-09-05T08:24:47Z</time>
      </trkpt>
      <trkpt lat="46.87175" lon="-1.0273">
        <ele>96</ele>
        <time>2022-09-05T08:24:49Z</time>
      </trkpt>
      <trkpt lat="46.87165" lon="-1.02742">
        <ele>95</ele>
        <time>2022-09-05T08:24:52Z</time>
      </trkpt>
      <trkpt lat="46.87159" lon="-1.02763">
        <ele>95</ele>
        <time>2022-09-05T08:24:54Z</time>
      </trkpt>
      <trkpt lat="46.87156" lon="-1.02781">
        <ele>95</ele>
        <time>2022-09-05T08:24:57Z</time>
      </trkpt>
      <trkpt lat="46.87151" lon="-1.02839">
        <ele>94</ele>
        <time>2022-09-05T08:25:04Z</time>
      </trkpt>
      <trkpt lat="46.8715" lon="-1.02876">
        <ele>94</ele>
        <time>2022-09-05T08:25:08Z</time>
      </trkpt>
      <trkpt lat="46.8715" lon="-1.02917">
        <ele>94</ele>
        <time>2022-09-05T08:25:13Z</time>
      </trkpt>
      <trkpt lat="46.87152" lon="-1.0295">
        <ele>93</ele>
        <time>2022-09-05T08:25:17Z</time>
      </trkpt>
      <trkpt lat="46.8718" lon="-1.03261">
        <ele>90</ele>
        <time>2022-09-05T08:25:55Z</time>
      </trkpt>
      <trkpt lat="46.87181" lon="-1.03298">
        <ele>90</ele>
        <time>2022-09-05T08:26:00Z</time>
      </trkpt>
      <trkpt lat="46.8718" lon="-1.03336">
        <ele>91</ele>
        <time>2022-09-05T08:26:05Z</time>
      </trkpt>
      <trkpt lat="46.87176" lon="-1.03388">
        <ele>91</ele>
        <time>2022-09-05T08:26:11Z</time>
      </trkpt>
      <trkpt lat="46.87167" lon="-1.03443">
        <ele>91</ele>
        <time>2022-09-05T08:26:18Z</time>
      </trkpt>
      <trkpt lat="46.87124" lon="-1.03601">
        <ele>91</ele>
        <time>2022-09-05T08:26:38Z</time>
      </trkpt>
      <trkpt lat="46.87118" lon="-1.03635">
        <ele>91</ele>
        <time>2022-09-05T08:26:43Z</time>
      </trkpt>
      <trkpt lat="46.87116" lon="-1.03652">
        <ele>91</ele>
        <time>2022-09-05T08:26:45Z</time>
      </trkpt>
      <trkpt lat="46.87117" lon="-1.03691">
        <ele>91</ele>
        <time>2022-09-05T08:26:50Z</time>
      </trkpt>
      <trkpt lat="46.87126" lon="-1.03779">
        <ele>90</ele>
        <time>2022-09-05T08:27:00Z</time>
      </trkpt>
      <trkpt lat="46.87135" lon="-1.03783">
        <ele>90</ele>
        <time>2022-09-05T08:27:02Z</time>
      </trkpt>
      <trkpt lat="46.8714" lon="-1.03789">
        <ele>90</ele>
        <time>2022-09-05T08:27:03Z</time>
      </trkpt>
      <trkpt lat="46.87142" lon="-1.03799">
        <ele>90</ele>
        <time>2022-09-05T08:27:04Z</time>
      </trkpt>
      <trkpt lat="46.87141" lon="-1.03806">
        <ele>90</ele>
        <time>2022-09-05T08:27:05Z</time>
      </trkpt>
      <trkpt lat="46.87136" lon="-1.03817">
        <ele>90</ele>
        <time>2022-09-05T08:27:07Z</time>
      </trkpt>
      <trkpt lat="46.87164" lon="-1.03871">
        <ele>91</ele>
        <time>2022-09-05T08:27:15Z</time>
      </trkpt>
      <trkpt lat="46.8717" lon="-1.03886">
        <ele>91</ele>
        <time>2022-09-05T08:27:17Z</time>
      </trkpt>
      <trkpt lat="46.87181" lon="-1.03922">
        <ele>92</ele>
        <time>2022-09-05T08:27:22Z</time>
      </trkpt>
      <trkpt lat="46.872" lon="-1.04009">
        <ele>92</ele>
        <time>2022-09-05T08:27:33Z</time>
      </trkpt>
      <trkpt lat="46.87206" lon="-1.04041">
        <ele>92</ele>
        <time>2022-09-05T08:27:37Z</time>
      </trkpt>
      <trkpt lat="46.87213" lon="-1.04106">
        <ele>92</ele>
        <time>2022-09-05T08:27:45Z</time>
      </trkpt>
      <trkpt lat="46.87221" lon="-1.04151">
        <ele>91</ele>
        <time>2022-09-05T08:27:51Z</time>
      </trkpt>
      <trkpt lat="46.87239" lon="-1.04208">
        <ele>89</ele>
        <time>2022-09-05T08:27:59Z</time>
      </trkpt>
      <trkpt lat="46.87276" lon="-1.04301">
        <ele>88</ele>
        <time>2022-09-05T08:28:12Z</time>
      </trkpt>
      <trkpt lat="46.87536" lon="-1.04917">
        <ele>88</ele>
        <time>2022-09-05T08:29:40Z</time>
      </trkpt>
      <trkpt lat="46.87599" lon="-1.05073">
        <ele>87</ele>
        <time>2022-09-05T08:30:02Z</time>
      </trkpt>
      <trkpt lat="46.87629" lon="-1.05157">
        <ele>87</ele>
        <time>2022-09-05T08:30:13Z</time>
      </trkpt>
      <trkpt lat="46.87642" lon="-1.05206">
        <ele>87</ele>
        <time>2022-09-05T08:30:20Z</time>
      </trkpt>
      <trkpt lat="46.87647" lon="-1.05234">
        <ele>87</ele>
        <time>2022-09-05T08:30:23Z</time>
      </trkpt>
      <trkpt lat="46.87667" lon="-1.05353">
        <ele>87</ele>
        <time>2022-09-05T08:30:38Z</time>
      </trkpt>
      <trkpt lat="46.87672" lon="-1.05404">
        <ele>86</ele>
        <time>2022-09-05T08:30:44Z</time>
      </trkpt>
      <trkpt lat="46.87672" lon="-1.05447">
        <ele>86</ele>
        <time>2022-09-05T08:30:50Z</time>
      </trkpt>
      <trkpt lat="46.87669" lon="-1.05473">
        <ele>85</ele>
        <time>2022-09-05T08:30:53Z</time>
      </trkpt>
      <trkpt lat="46.87632" lon="-1.05667">
        <ele>87</ele>
        <time>2022-09-05T08:31:17Z</time>
      </trkpt>
      <trkpt lat="46.876" lon="-1.05841">
        <ele>85</ele>
        <time>2022-09-05T08:31:39Z</time>
      </trkpt>
      <trkpt lat="46.87509" lon="-1.06371">
        <ele>85</ele>
        <time>2022-09-05T08:32:46Z</time>
      </trkpt>
      <trkpt lat="46.87491" lon="-1.06535">
        <ele>86</ele>
        <time>2022-09-05T08:33:06Z</time>
      </trkpt>
      <trkpt lat="46.87491" lon="-1.06575">
        <ele>86</ele>
        <time>2022-09-05T08:33:11Z</time>
      </trkpt>
      <trkpt lat="46.87495" lon="-1.06621">
        <ele>86</ele>
        <time>2022-09-05T08:33:16Z</time>
      </trkpt>
      <trkpt lat="46.87533" lon="-1.06882">
        <ele>84</ele>
        <time>2022-09-05T08:33:49Z</time>
      </trkpt>
      <trkpt lat="46.87559" lon="-1.07226">
        <ele>83</ele>
        <time>2022-09-05T08:34:31Z</time>
      </trkpt>
      <trkpt lat="46.8756" lon="-1.0729">
        <ele>82</ele>
        <time>2022-09-05T08:34:39Z</time>
      </trkpt>
      <trkpt lat="46.87558" lon="-1.07329">
        <ele>82</ele>
        <time>2022-09-05T08:34:43Z</time>
      </trkpt>
      <trkpt lat="46.87532" lon="-1.07565">
        <ele>83</ele>
        <time>2022-09-05T08:35:13Z</time>
      </trkpt>
      <trkpt lat="46.87523" lon="-1.07621">
        <ele>84</ele>
        <time>2022-09-05T08:35:20Z</time>
      </trkpt>
      <trkpt lat="46.8751" lon="-1.07666">
        <ele>85</ele>
        <time>2022-09-05T08:35:25Z</time>
      </trkpt>
      <trkpt lat="46.87405" lon="-1.07982">
        <ele>91</ele>
        <time>2022-09-05T08:36:08Z</time>
      </trkpt>
      <trkpt lat="46.87277" lon="-1.08377">
        <ele>96</ele>
        <time>2022-09-05T08:37:01Z</time>
      </trkpt>
      <trkpt lat="46.87239" lon="-1.08489">
        <ele>96</ele>
        <time>2022-09-05T08:37:17Z</time>
      </trkpt>
      <trkpt lat="46.8723" lon="-1.08508">
        <ele>96</ele>
        <time>2022-09-05T08:37:19Z</time>
      </trkpt>
      <trkpt lat="46.87213" lon="-1.0854">
        <ele>96</ele>
        <time>2022-09-05T08:37:24Z</time>
      </trkpt>
      <trkpt lat="46.87198" lon="-1.08561">
        <ele>95</ele>
        <time>2022-09-05T08:37:28Z</time>
      </trkpt>
      <trkpt lat="46.8718" lon="-1.08581">
        <ele>95</ele>
        <time>2022-09-05T08:37:32Z</time>
      </trkpt>
      <trkpt lat="46.87102" lon="-1.0865">
        <ele>94</ele>
        <time>2022-09-05T08:37:48Z</time>
      </trkpt>
      <trkpt lat="46.86694" lon="-1.09003">
        <ele>96</ele>
        <time>2022-09-05T08:39:13Z</time>
      </trkpt>
      <trkpt lat="46.86443" lon="-1.09217">
        <ele>88</ele>
        <time>2022-09-05T08:40:04Z</time>
      </trkpt>
      <trkpt lat="46.86377" lon="-1.09275">
        <ele>85</ele>
        <time>2022-09-05T08:40:18Z</time>
      </trkpt>
      <trkpt lat="46.8636" lon="-1.09293">
        <ele>84</ele>
        <time>2022-09-05T08:40:22Z</time>
      </trkpt>
      <trkpt lat="46.86329" lon="-1.0934">
        <ele>82</ele>
        <time>2022-09-05T08:40:30Z</time>
      </trkpt>
      <trkpt lat="46.86193" lon="-1.09616">
        <ele>79</ele>
        <time>2022-09-05T08:41:11Z</time>
      </trkpt>
      <trkpt lat="46.86184" lon="-1.09641">
        <ele>79</ele>
        <time>2022-09-05T08:41:15Z</time>
      </trkpt>
      <trkpt lat="46.86178" lon="-1.09671">
        <ele>79</ele>
        <time>2022-09-05T08:41:18Z</time>
      </trkpt>
      <trkpt lat="46.86177" lon="-1.09696">
        <ele>80</ele>
        <time>2022-09-05T08:41:21Z</time>
      </trkpt>
      <trkpt lat="46.86175" lon="-1.09719">
        <ele>80</ele>
        <time>2022-09-05T08:41:24Z</time>
      </trkpt>
      <trkpt lat="46.8617" lon="-1.09787">
        <ele>82</ele>
        <time>2022-09-05T08:41:32Z</time>
      </trkpt>
      <trkpt lat="46.86161" lon="-1.09811">
        <ele>83</ele>
        <time>2022-09-05T08:41:36Z</time>
      </trkpt>
      <trkpt lat="46.86147" lon="-1.0983">
        <ele>85</ele>
        <time>2022-09-05T08:41:39Z</time>
      </trkpt>
      <trkpt lat="46.86077" lon="-1.09901">
        <ele>88</ele>
        <time>2022-09-05T08:41:54Z</time>
      </trkpt>
      <trkpt lat="46.86049" lon="-1.09936">
        <ele>89</ele>
        <time>2022-09-05T08:42:01Z</time>
      </trkpt>
      <trkpt lat="46.86078" lon="-1.09996">
        <ele>88</ele>
        <time>2022-09-05T08:42:10Z</time>
      </trkpt>
      <trkpt lat="46.86128" lon="-1.10052">
        <ele>87</ele>
        <time>2022-09-05T08:42:21Z</time>
      </trkpt>
      <trkpt lat="46.86142" lon="-1.10071">
        <ele>86</ele>
        <time>2022-09-05T08:42:24Z</time>
      </trkpt>
      <trkpt lat="46.8615" lon="-1.10086">
        <ele>86</ele>
        <time>2022-09-05T08:42:27Z</time>
      </trkpt>
      <trkpt lat="46.86174" lon="-1.1015">
        <ele>90</ele>
        <time>2022-09-05T08:42:36Z</time>
      </trkpt>
      <trkpt lat="46.86294" lon="-1.1048">
        <ele>93</ele>
        <time>2022-09-05T08:43:21Z</time>
      </trkpt>
      <trkpt lat="46.86287" lon="-1.10486">
        <ele>93</ele>
        <time>2022-09-05T08:43:23Z</time>
      </trkpt>
      <trkpt lat="46.8629" lon="-1.10492">
        <ele>93</ele>
        <time>2022-09-05T08:43:23Z</time>
      </trkpt>
      <trkpt lat="46.86295" lon="-1.10495">
        <ele>93</ele>
        <time>2022-09-05T08:43:24Z</time>
      </trkpt>
      <trkpt lat="46.86299" lon="-1.10505">
        <ele>93</ele>
        <time>2022-09-05T08:43:26Z</time>
      </trkpt>
      <trkpt lat="46.86295" lon="-1.10495">
        <ele>93</ele>
        <time>2022-09-05T08:43:27Z</time>
      </trkpt>
      <trkpt lat="46.8629" lon="-1.10492">
        <ele>93</ele>
        <time>2022-09-05T08:43:28Z</time>
      </trkpt>
      <trkpt lat="46.86287" lon="-1.10486">
        <ele>93</ele>
        <time>2022-09-05T08:43:29Z</time>
      </trkpt>
      <trkpt lat="46.86294" lon="-1.1048">
        <ele>93</ele>
        <time>2022-09-05T08:43:31Z</time>
      </trkpt>
      <trkpt lat="46.86348" lon="-1.1063">
        <ele>94</ele>
        <time>2022-09-05T08:43:51Z</time>
      </trkpt>
      <trkpt lat="46.86361" lon="-1.10673">
        <ele>93</ele>
        <time>2022-09-05T08:43:57Z</time>
      </trkpt>
      <trkpt lat="46.8637" lon="-1.10715">
        <ele>94</ele>
        <time>2022-09-05T08:44:02Z</time>
      </trkpt>
      <trkpt lat="46.86449" lon="-1.1119">
        <ele>96</ele>
        <time>2022-09-05T08:45:02Z</time>
      </trkpt>
      <trkpt lat="46.86461" lon="-1.11239">
        <ele>95</ele>
        <time>2022-09-05T08:45:08Z</time>
      </trkpt>
      <trkpt lat="46.8662" lon="-1.11814">
        <ele>85</ele>
        <time>2022-09-05T08:46:24Z</time>
      </trkpt>
      <trkpt lat="46.86627" lon="-1.1185">
        <ele>86</ele>
        <time>2022-09-05T08:46:28Z</time>
      </trkpt>
      <trkpt lat="46.86628" lon="-1.11874">
        <ele>86</ele>
        <time>2022-09-05T08:46:31Z</time>
      </trkpt>
      <trkpt lat="46.86626" lon="-1.11891">
        <ele>87</ele>
        <time>2022-09-05T08:46:33Z</time>
      </trkpt>
      <trkpt lat="46.86622" lon="-1.1191">
        <ele>88</ele>
        <time>2022-09-05T08:46:36Z</time>
      </trkpt>
      <trkpt lat="46.86527" lon="-1.12226">
        <ele>93</ele>
        <time>2022-09-05T08:47:18Z</time>
      </trkpt>
      <trkpt lat="46.86515" lon="-1.12276">
        <ele>94</ele>
        <time>2022-09-05T08:47:24Z</time>
      </trkpt>
      <trkpt lat="46.86506" lon="-1.12319">
        <ele>95</ele>
        <time>2022-09-05T08:47:29Z</time>
      </trkpt>
      <trkpt lat="46.86421" lon="-1.12829">
        <ele>100</ele>
        <time>2022-09-05T08:48:33Z</time>
      </trkpt>
      <trkpt lat="46.86409" lon="-1.1288">
        <ele>99</ele>
        <time>2022-09-05T08:48:40Z</time>
      </trkpt>
      <trkpt lat="46.86344" lon="-1.13112">
        <ele>101</ele>
        <time>2022-09-05T08:49:10Z</time>
      </trkpt>
      <trkpt lat="46.86321" lon="-1.13175">
        <ele>102</ele>
        <time>2022-09-05T08:49:19Z</time>
      </trkpt>
      <trkpt lat="46.85995" lon="-1.13825">
        <ele>103</ele>
        <time>2022-09-05T08:50:57Z</time>
      </trkpt>
      <trkpt lat="46.85973" lon="-1.1386">
        <ele>103</ele>
        <time>2022-09-05T08:51:03Z</time>
      </trkpt>
      <trkpt lat="46.85949" lon="-1.13893">
        <ele>104</ele>
        <time>2022-09-05T08:51:09Z</time>
      </trkpt>
      <trkpt lat="46.85923" lon="-1.13921">
        <ele>104</ele>
        <time>2022-09-05T08:51:15Z</time>
      </trkpt>
      <trkpt lat="46.85895" lon="-1.13944">
        <ele>103</ele>
        <time>2022-09-05T08:51:20Z</time>
      </trkpt>
      <trkpt lat="46.85867" lon="-1.13963">
        <ele>103</ele>
        <time>2022-09-05T08:51:26Z</time>
      </trkpt>
      <trkpt lat="46.85815" lon="-1.13993">
        <ele>103</ele>
        <time>2022-09-05T08:51:36Z</time>
      </trkpt>
      <trkpt lat="46.85783" lon="-1.14016">
        <ele>103</ele>
        <time>2022-09-05T08:51:42Z</time>
      </trkpt>
      <trkpt lat="46.85763" lon="-1.14037">
        <ele>102</ele>
        <time>2022-09-05T08:51:46Z</time>
      </trkpt>
      <trkpt lat="46.85736" lon="-1.14073">
        <ele>102</ele>
        <time>2022-09-05T08:51:53Z</time>
      </trkpt>
      <trkpt lat="46.8572" lon="-1.14101">
        <ele>101</ele>
        <time>2022-09-05T08:51:57Z</time>
      </trkpt>
      <trkpt lat="46.85709" lon="-1.14126">
        <ele>101</ele>
        <time>2022-09-05T08:52:01Z</time>
      </trkpt>
      <trkpt lat="46.85699" lon="-1.14153">
        <ele>100</ele>
        <time>2022-09-05T08:52:05Z</time>
      </trkpt>
      <trkpt lat="46.85691" lon="-1.14182">
        <ele>100</ele>
        <time>2022-09-05T08:52:08Z</time>
      </trkpt>
      <trkpt lat="46.85684" lon="-1.14212">
        <ele>99</ele>
        <time>2022-09-05T08:52:12Z</time>
      </trkpt>
      <trkpt lat="46.85676" lon="-1.14276">
        <ele>99</ele>
        <time>2022-09-05T08:52:20Z</time>
      </trkpt>
      <trkpt lat="46.85668" lon="-1.1434">
        <ele>99</ele>
        <time>2022-09-05T08:52:28Z</time>
      </trkpt>
      <trkpt lat="46.85629" lon="-1.14667">
        <ele>97</ele>
        <time>2022-09-05T08:53:09Z</time>
      </trkpt>
      <trkpt lat="46.85622" lon="-1.14712">
        <ele>97</ele>
        <time>2022-09-05T08:53:14Z</time>
      </trkpt>
      <trkpt lat="46.85566" lon="-1.14978">
        <ele>97</ele>
        <time>2022-09-05T08:53:48Z</time>
      </trkpt>
      <trkpt lat="46.85381" lon="-1.15818">
        <ele>95</ele>
        <time>2022-09-05T08:55:35Z</time>
      </trkpt>
      <trkpt lat="46.85239" lon="-1.16438">
        <ele>92</ele>
        <time>2022-09-05T08:56:55Z</time>
      </trkpt>
      <trkpt lat="46.85222" lon="-1.16514">
        <ele>90</ele>
        <time>2022-09-05T08:57:05Z</time>
      </trkpt>
      <trkpt lat="46.85195" lon="-1.16629">
        <ele>88</ele>
        <time>2022-09-05T08:57:20Z</time>
      </trkpt>
      <trkpt lat="46.85189" lon="-1.16649">
        <ele>88</ele>
        <time>2022-09-05T08:57:22Z</time>
      </trkpt>
      <trkpt lat="46.8519" lon="-1.16668">
        <ele>88</ele>
        <time>2022-09-05T08:57:24Z</time>
      </trkpt>
      <trkpt lat="46.85195" lon="-1.16676">
        <ele>88</ele>
        <time>2022-09-05T08:57:26Z</time>
      </trkpt>
      <trkpt lat="46.85196" lon="-1.16683">
        <ele>88</ele>
        <time>2022-09-05T08:57:27Z</time>
      </trkpt>
      <trkpt lat="46.85207" lon="-1.16695">
        <ele>88</ele>
        <time>2022-09-05T08:57:29Z</time>
      </trkpt>
      <trkpt lat="46.85233" lon="-1.16712">
        <ele>88</ele>
        <time>2022-09-05T08:57:34Z</time>
      </trkpt>
      <trkpt lat="46.85297" lon="-1.16785">
        <ele>87</ele>
        <time>2022-09-05T08:57:49Z</time>
      </trkpt>
      <trkpt lat="46.85313" lon="-1.168">
        <ele>87</ele>
        <time>2022-09-05T08:57:52Z</time>
      </trkpt>
      <trkpt lat="46.85331" lon="-1.16809">
        <ele>87</ele>
        <time>2022-09-05T08:57:55Z</time>
      </trkpt>
      <trkpt lat="46.85377" lon="-1.16819">
        <ele>87</ele>
        <time>2022-09-05T08:58:04Z</time>
      </trkpt>
      <trkpt lat="46.85406" lon="-1.16835">
        <ele>87</ele>
        <time>2022-09-05T08:58:09Z</time>
      </trkpt>
      <trkpt lat="46.85415" lon="-1.16843">
        <ele>87</ele>
        <time>2022-09-05T08:58:11Z</time>
      </trkpt>
      <trkpt lat="46.85613" lon="-1.17049">
        <ele>90</ele>
        <time>2022-09-05T08:58:54Z</time>
      </trkpt>
      <trkpt lat="46.85693" lon="-1.17185">
        <ele>91</ele>
        <time>2022-09-05T08:59:16Z</time>
      </trkpt>
      <trkpt lat="46.85845" lon="-1.1735">
        <ele>93</ele>
        <time>2022-09-05T08:59:50Z</time>
      </trkpt>
      <trkpt lat="46.85851" lon="-1.17344">
        <ele>93</ele>
        <time>2022-09-05T08:59:51Z</time>
      </trkpt>
      <trkpt lat="46.85859" lon="-1.17341">
        <ele>93</ele>
        <time>2022-09-05T08:59:53Z</time>
      </trkpt>
      <trkpt lat="46.85866" lon="-1.17344">
        <ele>93</ele>
        <time>2022-09-05T08:59:54Z</time>
      </trkpt>
      <trkpt lat="46.85871" lon="-1.1735">
        <ele>93</ele>
        <time>2022-09-05T08:59:55Z</time>
      </trkpt>
      <trkpt lat="46.85884" lon="-1.17336">
        <ele>93</ele>
        <time>2022-09-05T08:59:58Z</time>
      </trkpt>
      <trkpt lat="46.85915" lon="-1.17282">
        <ele>93</ele>
        <time>2022-09-05T09:00:06Z</time>
      </trkpt>
      <trkpt lat="46.8604" lon="-1.17048">
        <ele>85</ele>
        <time>2022-09-05T09:00:43Z</time>
      </trkpt>
      <trkpt lat="46.86067" lon="-1.17006">
        <ele>85</ele>
        <time>2022-09-05T09:00:50Z</time>
      </trkpt>
      <trkpt lat="46.86242" lon="-1.16814">
        <ele>91</ele>
        <time>2022-09-05T09:01:29Z</time>
      </trkpt>
      <trkpt lat="46.86263" lon="-1.16794">
        <ele>92</ele>
        <time>2022-09-05T09:01:33Z</time>
      </trkpt>
      <trkpt lat="46.86276" lon="-1.16783">
        <ele>92</ele>
        <time>2022-09-05T09:01:36Z</time>
      </trkpt>
      <trkpt lat="46.86337" lon="-1.16745">
        <ele>93</ele>
        <time>2022-09-05T09:01:47Z</time>
      </trkpt>
      <trkpt lat="46.86381" lon="-1.16714">
        <ele>94</ele>
        <time>2022-09-05T09:01:56Z</time>
      </trkpt>
      <trkpt lat="46.86405" lon="-1.16694">
        <ele>94</ele>
        <time>2022-09-05T09:02:01Z</time>
      </trkpt>
      <trkpt lat="46.86452" lon="-1.16651">
        <ele>95</ele>
        <time>2022-09-05T09:02:11Z</time>
      </trkpt>
      <trkpt lat="46.8647" lon="-1.16631">
        <ele>96</ele>
        <time>2022-09-05T09:02:15Z</time>
      </trkpt>
      <trkpt lat="46.86499" lon="-1.16594">
        <ele>97</ele>
        <time>2022-09-05T09:02:22Z</time>
      </trkpt>
      <trkpt lat="46.86515" lon="-1.16571">
        <ele>98</ele>
        <time>2022-09-05T09:02:26Z</time>
      </trkpt>
      <trkpt lat="46.86538" lon="-1.16529">
        <ele>99</ele>
        <time>2022-09-05T09:02:32Z</time>
      </trkpt>
      <trkpt lat="46.8675" lon="-1.16078">
        <ele>99</ele>
        <time>2022-09-05T09:03:39Z</time>
      </trkpt>
      <trkpt lat="46.86767" lon="-1.1605">
        <ele>99</ele>
        <time>2022-09-05T09:03:43Z</time>
      </trkpt>
      <trkpt lat="46.86786" lon="-1.16022">
        <ele>99</ele>
        <time>2022-09-05T09:03:48Z</time>
      </trkpt>
      <trkpt lat="46.87126" lon="-1.15581">
        <ele>97</ele>
        <time>2022-09-05T09:05:09Z</time>
      </trkpt>
      <trkpt lat="46.87277" lon="-1.15411">
        <ele>99</ele>
        <time>2022-09-05T09:05:43Z</time>
      </trkpt>
      <trkpt lat="46.87506" lon="-1.1516">
        <ele>97</ele>
        <time>2022-09-05T09:06:34Z</time>
      </trkpt>
      <trkpt lat="46.88272" lon="-1.14307">
        <ele>96</ele>
        <time>2022-09-05T09:09:25Z</time>
      </trkpt>
      <trkpt lat="46.88365" lon="-1.14208">
        <ele>95</ele>
        <time>2022-09-05T09:09:46Z</time>
      </trkpt>
      <trkpt lat="46.88399" lon="-1.14184">
        <ele>95</ele>
        <time>2022-09-05T09:09:52Z</time>
      </trkpt>
      <trkpt lat="46.88502" lon="-1.14122">
        <ele>95</ele>
        <time>2022-09-05T09:10:12Z</time>
      </trkpt>
      <trkpt lat="46.88543" lon="-1.14103">
        <ele>95</ele>
        <time>2022-09-05T09:10:20Z</time>
      </trkpt>
      <trkpt lat="46.88593" lon="-1.14089">
        <ele>95</ele>
        <time>2022-09-05T09:10:29Z</time>
      </trkpt>
      <trkpt lat="46.89262" lon="-1.14037">
        <ele>72</ele>
        <time>2022-09-05T09:12:28Z</time>
      </trkpt>
      <trkpt lat="46.89274" lon="-1.14034">
        <ele>71</ele>
        <time>2022-09-05T09:12:30Z</time>
      </trkpt>
      <trkpt lat="46.89292" lon="-1.14026">
        <ele>71</ele>
        <time>2022-09-05T09:12:34Z</time>
      </trkpt>
      <trkpt lat="46.89307" lon="-1.14013">
        <ele>71</ele>
        <time>2022-09-05T09:12:37Z</time>
      </trkpt>
      <trkpt lat="46.89321" lon="-1.13993">
        <ele>71</ele>
        <time>2022-09-05T09:12:40Z</time>
      </trkpt>
      <trkpt lat="46.8933" lon="-1.13967">
        <ele>70</ele>
        <time>2022-09-05T09:12:44Z</time>
      </trkpt>
      <trkpt lat="46.89339" lon="-1.13924">
        <ele>69</ele>
        <time>2022-09-05T09:12:49Z</time>
      </trkpt>
      <trkpt lat="46.89348" lon="-1.13878">
        <ele>70</ele>
        <time>2022-09-05T09:12:55Z</time>
      </trkpt>
      <trkpt lat="46.89365" lon="-1.13825">
        <ele>72</ele>
        <time>2022-09-05T09:13:02Z</time>
      </trkpt>
      <trkpt lat="46.89392" lon="-1.13769">
        <ele>76</ele>
        <time>2022-09-05T09:13:11Z</time>
      </trkpt>
      <trkpt lat="46.89413" lon="-1.13737">
        <ele>78</ele>
        <time>2022-09-05T09:13:16Z</time>
      </trkpt>
      <trkpt lat="46.89446" lon="-1.13697">
        <ele>79</ele>
        <time>2022-09-05T09:13:24Z</time>
      </trkpt>
      <trkpt lat="46.89465" lon="-1.13679">
        <ele>80</ele>
        <time>2022-09-05T09:13:28Z</time>
      </trkpt>
      <trkpt lat="46.89496" lon="-1.13661">
        <ele>82</ele>
        <time>2022-09-05T09:13:34Z</time>
      </trkpt>
      <trkpt lat="46.89776" lon="-1.13533">
        <ele>88</ele>
        <time>2022-09-05T09:14:26Z</time>
      </trkpt>
      <trkpt lat="46.89803" lon="-1.13516">
        <ele>88</ele>
        <time>2022-09-05T09:14:31Z</time>
      </trkpt>
      <trkpt lat="46.90042" lon="-1.13317">
        <ele>87</ele>
        <time>2022-09-05T09:15:20Z</time>
      </trkpt>
      <trkpt lat="46.90088" lon="-1.13285">
        <ele>87</ele>
        <time>2022-09-05T09:15:29Z</time>
      </trkpt>
      <trkpt lat="46.9012" lon="-1.13269">
        <ele>87</ele>
        <time>2022-09-05T09:15:35Z</time>
      </trkpt>
      <trkpt lat="46.90141" lon="-1.1326">
        <ele>87</ele>
        <time>2022-09-05T09:15:39Z</time>
      </trkpt>
      <trkpt lat="46.90198" lon="-1.13242">
        <ele>87</ele>
        <time>2022-09-05T09:15:49Z</time>
      </trkpt>
      <trkpt lat="46.90243" lon="-1.13235">
        <ele>86</ele>
        <time>2022-09-05T09:15:57Z</time>
      </trkpt>
      <trkpt lat="46.90337" lon="-1.13234">
        <ele>83</ele>
        <time>2022-09-05T09:16:14Z</time>
      </trkpt>
      <trkpt lat="46.90377" lon="-1.13228">
        <ele>82</ele>
        <time>2022-09-05T09:16:21Z</time>
      </trkpt>
      <trkpt lat="46.90412" lon="-1.13217">
        <ele>81</ele>
        <time>2022-09-05T09:16:28Z</time>
      </trkpt>
      <trkpt lat="46.90442" lon="-1.13203">
        <ele>80</ele>
        <time>2022-09-05T09:16:33Z</time>
      </trkpt>
      <trkpt lat="46.9046" lon="-1.13192">
        <ele>80</ele>
        <time>2022-09-05T09:16:37Z</time>
      </trkpt>
      <trkpt lat="46.90495" lon="-1.13164">
        <ele>79</ele>
        <time>2022-09-05T09:16:44Z</time>
      </trkpt>
      <trkpt lat="46.90597" lon="-1.13059">
        <ele>78</ele>
        <time>2022-09-05T09:17:06Z</time>
      </trkpt>
      <trkpt lat="46.90614" lon="-1.13047">
        <ele>78</ele>
        <time>2022-09-05T09:17:09Z</time>
      </trkpt>
      <trkpt lat="46.90618" lon="-1.13064">
        <ele>78</ele>
        <time>2022-09-05T09:17:11Z</time>
      </trkpt>
      <trkpt lat="46.90631" lon="-1.13102">
        <ele>79</ele>
        <time>2022-09-05T09:17:17Z</time>
      </trkpt>
      <trkpt lat="46.90698" lon="-1.13223">
        <ele>85</ele>
        <time>2022-09-05T09:17:36Z</time>
      </trkpt>
      <trkpt lat="46.90728" lon="-1.13277">
        <ele>86</ele>
        <time>2022-09-05T09:17:44Z</time>
      </trkpt>
      <trkpt lat="46.90795" lon="-1.13207">
        <ele>85</ele>
        <time>2022-09-05T09:17:59Z</time>
      </trkpt>
      <trkpt lat="46.90849" lon="-1.13142">
        <ele>84</ele>
        <time>2022-09-05T09:18:11Z</time>
      </trkpt>
      <trkpt lat="46.90889" lon="-1.13098">
        <ele>83</ele>
        <time>2022-09-05T09:18:20Z</time>
      </trkpt>
      <trkpt lat="46.90937" lon="-1.13054">
        <ele>81</ele>
        <time>2022-09-05T09:18:30Z</time>
      </trkpt>
      <trkpt lat="46.91027" lon="-1.12991">
        <ele>78</ele>
        <time>2022-09-05T09:18:48Z</time>
      </trkpt>
      <trkpt lat="46.91146" lon="-1.12916">
        <ele>76</ele>
        <time>2022-09-05T09:19:11Z</time>
      </trkpt>
      <trkpt lat="46.91168" lon="-1.129">
        <ele>76</ele>
        <time>2022-09-05T09:19:15Z</time>
      </trkpt>
      <trkpt lat="46.91212" lon="-1.12859">
        <ele>78</ele>
        <time>2022-09-05T09:19:24Z</time>
      </trkpt>
      <trkpt lat="46.91247" lon="-1.12817">
        <ele>78</ele>
        <time>2022-09-05T09:19:33Z</time>
      </trkpt>
      <trkpt lat="46.91268" lon="-1.1278">
        <ele>78</ele>
        <time>2022-09-05T09:19:38Z</time>
      </trkpt>
      <trkpt lat="46.91328" lon="-1.12645">
        <ele>79</ele>
        <time>2022-09-05T09:19:58Z</time>
      </trkpt>
      <trkpt lat="46.91353" lon="-1.12602">
        <ele>79</ele>
        <time>2022-09-05T09:20:05Z</time>
      </trkpt>
      <trkpt lat="46.91571" lon="-1.12351">
        <ele>85</ele>
        <time>2022-09-05T09:20:54Z</time>
      </trkpt>
      <trkpt lat="46.91614" lon="-1.12305">
        <ele>83</ele>
        <time>2022-09-05T09:21:04Z</time>
      </trkpt>
      <trkpt lat="46.91628" lon="-1.12292">
        <ele>83</ele>
        <time>2022-09-05T09:21:07Z</time>
      </trkpt>
      <trkpt lat="46.9166" lon="-1.12277">
        <ele>83</ele>
        <time>2022-09-05T09:21:13Z</time>
      </trkpt>
      <trkpt lat="46.9194" lon="-1.12192">
        <ele>84</ele>
        <time>2022-09-05T09:22:03Z</time>
      </trkpt>
      <trkpt lat="46.91951" lon="-1.12187">
        <ele>84</ele>
        <time>2022-09-05T09:22:06Z</time>
      </trkpt>
      <trkpt lat="46.9197" lon="-1.12172">
        <ele>85</ele>
        <time>2022-09-05T09:22:09Z</time>
      </trkpt>
      <trkpt lat="46.91984" lon="-1.12154">
        <ele>85</ele>
        <time>2022-09-05T09:22:13Z</time>
      </trkpt>
      <trkpt lat="46.9199" lon="-1.12144">
        <ele>86</ele>
        <time>2022-09-05T09:22:14Z</time>
      </trkpt>
      <trkpt lat="46.92092" lon="-1.11939">
        <ele>90</ele>
        <time>2022-09-05T09:22:45Z</time>
      </trkpt>
      <trkpt lat="46.92124" lon="-1.11881">
        <ele>91</ele>
        <time>2022-09-05T09:22:54Z</time>
      </trkpt>
      <trkpt lat="46.92236" lon="-1.1171">
        <ele>93</ele>
        <time>2022-09-05T09:23:23Z</time>
      </trkpt>
      <trkpt lat="46.9225" lon="-1.11691">
        <ele>93</ele>
        <time>2022-09-05T09:23:26Z</time>
      </trkpt>
      <trkpt lat="46.92276" lon="-1.11671">
        <ele>93</ele>
        <time>2022-09-05T09:23:32Z</time>
      </trkpt>
      <trkpt lat="46.92315" lon="-1.11657">
        <ele>92</ele>
        <time>2022-09-05T09:23:39Z</time>
      </trkpt>
      <trkpt lat="46.92457" lon="-1.1162">
        <ele>90</ele>
        <time>2022-09-05T09:24:04Z</time>
      </trkpt>
      <trkpt lat="46.92496" lon="-1.11601">
        <ele>91</ele>
        <time>2022-09-05T09:24:12Z</time>
      </trkpt>
      <trkpt lat="46.92514" lon="-1.11585">
        <ele>91</ele>
        <time>2022-09-05T09:24:15Z</time>
      </trkpt>
      <trkpt lat="46.92686" lon="-1.11407">
        <ele>94</ele>
        <time>2022-09-05T09:24:53Z</time>
      </trkpt>
      <trkpt lat="46.92698" lon="-1.11389">
        <ele>94</ele>
        <time>2022-09-05T09:24:56Z</time>
      </trkpt>
      <trkpt lat="46.92709" lon="-1.1136">
        <ele>94</ele>
        <time>2022-09-05T09:25:00Z</time>
      </trkpt>
      <trkpt lat="46.92715" lon="-1.11328">
        <ele>94</ele>
        <time>2022-09-05T09:25:04Z</time>
      </trkpt>
      <trkpt lat="46.92746" lon="-1.11115">
        <ele>99</ele>
        <time>2022-09-05T09:25:30Z</time>
      </trkpt>
      <trkpt lat="46.92763" lon="-1.11013">
        <ele>99</ele>
        <time>2022-09-05T09:25:43Z</time>
      </trkpt>
      <trkpt lat="46.9277" lon="-1.10983">
        <ele>99</ele>
        <time>2022-09-05T09:25:47Z</time>
      </trkpt>
      <trkpt lat="46.92784" lon="-1.10945">
        <ele>99</ele>
        <time>2022-09-05T09:25:52Z</time>
      </trkpt>
      <trkpt lat="46.92816" lon="-1.10865">
        <ele>100</ele>
        <time>2022-09-05T09:26:04Z</time>
      </trkpt>
      <trkpt lat="46.92869" lon="-1.10756">
        <ele>100</ele>
        <time>2022-09-05T09:26:20Z</time>
      </trkpt>
      <trkpt lat="46.92904" lon="-1.10676">
        <ele>101</ele>
        <time>2022-09-05T09:26:31Z</time>
      </trkpt>
      <trkpt lat="46.92942" lon="-1.10604">
        <ele>101</ele>
        <time>2022-09-05T09:26:42Z</time>
      </trkpt>
      <trkpt lat="46.93001" lon="-1.10513">
        <ele>104</ele>
        <time>2022-09-05T09:26:58Z</time>
      </trkpt>
      <trkpt lat="46.93132" lon="-1.10317">
        <ele>107</ele>
        <time>2022-09-05T09:27:31Z</time>
      </trkpt>
      <trkpt lat="46.93148" lon="-1.10292">
        <ele>108</ele>
        <time>2022-09-05T09:27:35Z</time>
      </trkpt>
      <trkpt lat="46.93161" lon="-1.10264">
        <ele>108</ele>
        <time>2022-09-05T09:27:39Z</time>
      </trkpt>
      <trkpt lat="46.93166" lon="-1.10232">
        <ele>108</ele>
        <time>2022-09-05T09:27:43Z</time>
      </trkpt>
      <trkpt lat="46.93166" lon="-1.10162">
        <ele>109</ele>
        <time>2022-09-05T09:27:52Z</time>
      </trkpt>
      <trkpt lat="46.93163" lon="-1.10069">
        <ele>110</ele>
        <time>2022-09-05T09:28:03Z</time>
      </trkpt>
      <trkpt lat="46.93161" lon="-1.09905">
        <ele>112</ele>
        <time>2022-09-05T09:28:23Z</time>
      </trkpt>
      <trkpt lat="46.93161" lon="-1.0986">
        <ele>112</ele>
        <time>2022-09-05T09:28:29Z</time>
      </trkpt>
      <trkpt lat="46.93164" lon="-1.09814">
        <ele>112</ele>
        <time>2022-09-05T09:28:34Z</time>
      </trkpt>
      <trkpt lat="46.93175" lon="-1.09768">
        <ele>113</ele>
        <time>2022-09-05T09:28:40Z</time>
      </trkpt>
      <trkpt lat="46.93251" lon="-1.094">
        <ele>113</ele>
        <time>2022-09-05T09:29:27Z</time>
      </trkpt>
      <trkpt lat="46.93288" lon="-1.09221">
        <ele>113</ele>
        <time>2022-09-05T09:29:50Z</time>
      </trkpt>
      <trkpt lat="46.93303" lon="-1.09135">
        <ele>113</ele>
        <time>2022-09-05T09:30:00Z</time>
      </trkpt>
      <trkpt lat="46.93318" lon="-1.09087">
        <ele>114</ele>
        <time>2022-09-05T09:30:07Z</time>
      </trkpt>
      <trkpt lat="46.93455" lon="-1.0871">
        <ele>116</ele>
        <time>2022-09-05T09:30:59Z</time>
      </trkpt>
      <trkpt lat="46.93474" lon="-1.08652">
        <ele>115</ele>
        <time>2022-09-05T09:31:06Z</time>
      </trkpt>
      <trkpt lat="46.93577" lon="-1.08255">
        <ele>118</ele>
        <time>2022-09-05T09:31:58Z</time>
      </trkpt>
      <trkpt lat="46.93618" lon="-1.08107">
        <ele>120</ele>
        <time>2022-09-05T09:32:17Z</time>
      </trkpt>
      <trkpt lat="46.93706" lon="-1.07803">
        <ele>122</ele>
        <time>2022-09-05T09:32:58Z</time>
      </trkpt>
      <trkpt lat="46.93712" lon="-1.0776">
        <ele>123</ele>
        <time>2022-09-05T09:33:03Z</time>
      </trkpt>
      <trkpt lat="46.93709" lon="-1.0772">
        <ele>124</ele>
        <time>2022-09-05T09:33:08Z</time>
      </trkpt>
      <trkpt lat="46.93701" lon="-1.0771">
        <ele>124</ele>
        <time>2022-09-05T09:33:10Z</time>
      </trkpt>
      <trkpt lat="46.93697" lon="-1.07696">
        <ele>124</ele>
        <time>2022-09-05T09:33:11Z</time>
      </trkpt>
      <trkpt lat="46.93697" lon="-1.07688">
        <ele>124</ele>
        <time>2022-09-05T09:33:12Z</time>
      </trkpt>
      <trkpt lat="46.93699" lon="-1.07674">
        <ele>124</ele>
        <time>2022-09-05T09:33:14Z</time>
      </trkpt>
      <trkpt lat="46.9369" lon="-1.07637">
        <ele>125</ele>
        <time>2022-09-05T09:33:19Z</time>
      </trkpt>
      <trkpt lat="46.93658" lon="-1.07594">
        <ele>126</ele>
        <time>2022-09-05T09:33:27Z</time>
      </trkpt>
      <trkpt lat="46.93484" lon="-1.07407">
        <ele>131</ele>
        <time>2022-09-05T09:34:05Z</time>
      </trkpt>
      <trkpt lat="46.93444" lon="-1.07357">
        <ele>130</ele>
        <time>2022-09-05T09:34:14Z</time>
      </trkpt>
      <trkpt lat="46.93416" lon="-1.07318">
        <ele>130</ele>
        <time>2022-09-05T09:34:21Z</time>
      </trkpt>
      <trkpt lat="46.93391" lon="-1.07276">
        <ele>130</ele>
        <time>2022-09-05T09:34:28Z</time>
      </trkpt>
      <trkpt lat="46.93365" lon="-1.0722">
        <ele>129</ele>
        <time>2022-09-05T09:34:36Z</time>
      </trkpt>
      <trkpt lat="46.93347" lon="-1.07171">
        <ele>129</ele>
        <time>2022-09-05T09:34:43Z</time>
      </trkpt>
      <trkpt lat="46.93335" lon="-1.0713">
        <ele>130</ele>
        <time>2022-09-05T09:34:48Z</time>
      </trkpt>
      <trkpt lat="46.93109" lon="-1.06154">
        <ele>159</ele>
        <time>2022-09-05T09:36:54Z</time>
      </trkpt>
      <trkpt lat="46.93064" lon="-1.05953">
        <ele>161</ele>
        <time>2022-09-05T09:37:19Z</time>
      </trkpt>
      <trkpt lat="46.93057" lon="-1.05909">
        <ele>160</ele>
        <time>2022-09-05T09:37:25Z</time>
      </trkpt>
      <trkpt lat="46.93051" lon="-1.05844">
        <ele>160</ele>
        <time>2022-09-05T09:37:33Z</time>
      </trkpt>
      <trkpt lat="46.93052" lon="-1.05812">
        <ele>161</ele>
        <time>2022-09-05T09:37:37Z</time>
      </trkpt>
      <trkpt lat="46.93053" lon="-1.05781">
        <ele>163</ele>
        <time>2022-09-05T09:37:41Z</time>
      </trkpt>
      <trkpt lat="46.93064" lon="-1.05715">
        <ele>168</ele>
        <time>2022-09-05T09:37:49Z</time>
      </trkpt>
      <trkpt lat="46.93085" lon="-1.05644">
        <ele>171</ele>
        <time>2022-09-05T09:37:58Z</time>
      </trkpt>
      <trkpt lat="46.93099" lon="-1.05612">
        <ele>172</ele>
        <time>2022-09-05T09:38:03Z</time>
      </trkpt>
      <trkpt lat="46.93116" lon="-1.05579">
        <ele>174</ele>
        <time>2022-09-05T09:38:08Z</time>
      </trkpt>
      <trkpt lat="46.9315" lon="-1.05523">
        <ele>179</ele>
        <time>2022-09-05T09:38:17Z</time>
      </trkpt>
      <trkpt lat="46.93145" lon="-1.05508">
        <ele>180</ele>
        <time>2022-09-05T09:38:19Z</time>
      </trkpt>
      <trkpt lat="46.93146" lon="-1.05491">
        <ele>181</ele>
        <time>2022-09-05T09:38:21Z</time>
      </trkpt>
      <trkpt lat="46.93149" lon="-1.05482">
        <ele>181</ele>
        <time>2022-09-05T09:38:22Z</time>
      </trkpt>
      <trkpt lat="46.93154" lon="-1.05476">
        <ele>181</ele>
        <time>2022-09-05T09:38:23Z</time>
      </trkpt>
      <trkpt lat="46.9316" lon="-1.05472">
        <ele>182</ele>
        <time>2022-09-05T09:38:25Z</time>
      </trkpt>
      <trkpt lat="46.93166" lon="-1.05471">
        <ele>182</ele>
        <time>2022-09-05T09:38:26Z</time>
      </trkpt>
      <trkpt lat="46.93173" lon="-1.05472">
        <ele>182</ele>
        <time>2022-09-05T09:38:27Z</time>
      </trkpt>
      <trkpt lat="46.93211" lon="-1.0532">
        <ele>188</ele>
        <time>2022-09-05T09:38:47Z</time>
      </trkpt>
      <trkpt lat="46.9322" lon="-1.05287">
        <ele>189</ele>
        <time>2022-09-05T09:38:51Z</time>
      </trkpt>
      <trkpt lat="46.93246" lon="-1.05213">
        <ele>191</ele>
        <time>2022-09-05T09:39:01Z</time>
      </trkpt>
      <trkpt lat="46.93254" lon="-1.05195">
        <ele>192</ele>
        <time>2022-09-05T09:39:04Z</time>
      </trkpt>
      <trkpt lat="46.93265" lon="-1.05178">
        <ele>192</ele>
        <time>2022-09-05T09:39:06Z</time>
      </trkpt>
      <trkpt lat="46.93287" lon="-1.05156">
        <ele>192</ele>
        <time>2022-09-05T09:39:11Z</time>
      </trkpt>
      <trkpt lat="46.93305" lon="-1.05146">
        <ele>192</ele>
        <time>2022-09-05T09:39:15Z</time>
      </trkpt>
      <trkpt lat="46.93305" lon="-1.05137">
        <ele>192</ele>
        <time>2022-09-05T09:39:16Z</time>
      </trkpt>
      <trkpt lat="46.93307" lon="-1.05129">
        <ele>192</ele>
        <time>2022-09-05T09:39:17Z</time>
      </trkpt>
      <trkpt lat="46.9331" lon="-1.05123">
        <ele>192</ele>
        <time>2022-09-05T09:39:18Z</time>
      </trkpt>
      <trkpt lat="46.93315" lon="-1.05118">
        <ele>192</ele>
        <time>2022-09-05T09:39:19Z</time>
      </trkpt>
      <trkpt lat="46.933" lon="-1.05067">
        <ele>192</ele>
        <time>2022-09-05T09:39:25Z</time>
      </trkpt>
      <trkpt lat="46.93289" lon="-1.05043">
        <ele>192</ele>
        <time>2022-09-05T09:39:29Z</time>
      </trkpt>
      <trkpt lat="46.93232" lon="-1.04957">
        <ele>193</ele>
        <time>2022-09-05T09:39:44Z</time>
      </trkpt>
      <trkpt lat="46.93201" lon="-1.04899">
        <ele>192</ele>
        <time>2022-09-05T09:39:52Z</time>
      </trkpt>
      <trkpt lat="46.93136" lon="-1.04753">
        <ele>192</ele>
        <time>2022-09-05T09:40:14Z</time>
      </trkpt>
      <trkpt lat="46.93081" lon="-1.04603">
        <ele>194</ele>
        <time>2022-09-05T09:40:34Z</time>
      </trkpt>
      <trkpt lat="46.93026" lon="-1.04415">
        <ele>196</ele>
        <time>2022-09-05T09:40:59Z</time>
      </trkpt>
      <trkpt lat="46.93016" lon="-1.0439">
        <ele>197</ele>
        <time>2022-09-05T09:41:03Z</time>
      </trkpt>
      <trkpt lat="46.92982" lon="-1.04316">
        <ele>198</ele>
        <time>2022-09-05T09:41:14Z</time>
      </trkpt>
      <trkpt lat="46.92971" lon="-1.04282">
        <ele>198</ele>
        <time>2022-09-05T09:41:18Z</time>
      </trkpt>
      <trkpt lat="46.92967" lon="-1.04255">
        <ele>198</ele>
        <time>2022-09-05T09:41:21Z</time>
      </trkpt>
      <trkpt lat="46.92954" lon="-1.04147">
        <ele>196</ele>
        <time>2022-09-05T09:41:35Z</time>
      </trkpt>
      <trkpt lat="46.92945" lon="-1.04089">
        <ele>197</ele>
        <time>2022-09-05T09:41:42Z</time>
      </trkpt>
      <trkpt lat="46.92935" lon="-1.04054">
        <ele>197</ele>
        <time>2022-09-05T09:41:47Z</time>
      </trkpt>
      <trkpt lat="46.92927" lon="-1.04031">
        <ele>198</ele>
        <time>2022-09-05T09:41:50Z</time>
      </trkpt>
      <trkpt lat="46.92894" lon="-1.03956">
        <ele>198</ele>
        <time>2022-09-05T09:42:01Z</time>
      </trkpt>
      <trkpt lat="46.92867" lon="-1.0388">
        <ele>196</ele>
        <time>2022-09-05T09:42:11Z</time>
      </trkpt>
      <trkpt lat="46.92856" lon="-1.03843">
        <ele>195</ele>
        <time>2022-09-05T09:42:16Z</time>
      </trkpt>
      <trkpt lat="46.92848" lon="-1.0381">
        <ele>195</ele>
        <time>2022-09-05T09:42:20Z</time>
      </trkpt>
      <trkpt lat="46.92832" lon="-1.03706">
        <ele>195</ele>
        <time>2022-09-05T09:42:33Z</time>
      </trkpt>
      <trkpt lat="46.92826" lon="-1.03681">
        <ele>195</ele>
        <time>2022-09-05T09:42:36Z</time>
      </trkpt>
      <trkpt lat="46.92817" lon="-1.03657">
        <ele>195</ele>
        <time>2022-09-05T09:42:40Z</time>
      </trkpt>
      <trkpt lat="46.92791" lon="-1.03599">
        <ele>194</ele>
        <time>2022-09-05T09:42:48Z</time>
      </trkpt>
      <trkpt lat="46.92785" lon="-1.0358">
        <ele>193</ele>
        <time>2022-09-05T09:42:51Z</time>
      </trkpt>
      <trkpt lat="46.92781" lon="-1.03561">
        <ele>193</ele>
        <time>2022-09-05T09:42:53Z</time>
      </trkpt>
      <trkpt lat="46.92779" lon="-1.03534">
        <ele>194</ele>
        <time>2022-09-05T09:42:56Z</time>
      </trkpt>
      <trkpt lat="46.92776" lon="-1.03492">
        <ele>194</ele>
        <time>2022-09-05T09:43:02Z</time>
      </trkpt>
      <trkpt lat="46.92777" lon="-1.03424">
        <ele>195</ele>
        <time>2022-09-05T09:43:10Z</time>
      </trkpt>
      <trkpt lat="46.92775" lon="-1.03404">
        <ele>195</ele>
        <time>2022-09-05T09:43:12Z</time>
      </trkpt>
      <trkpt lat="46.92772" lon="-1.03385">
        <ele>195</ele>
        <time>2022-09-05T09:43:15Z</time>
      </trkpt>
      <trkpt lat="46.92766" lon="-1.03364">
        <ele>195</ele>
        <time>2022-09-05T09:43:17Z</time>
      </trkpt>
      <trkpt lat="46.92706" lon="-1.03227">
        <ele>193</ele>
        <time>2022-09-05T09:43:37Z</time>
      </trkpt>
      <trkpt lat="46.92692" lon="-1.03179">
        <ele>193</ele>
        <time>2022-09-05T09:43:43Z</time>
      </trkpt>
      <trkpt lat="46.92686" lon="-1.03152">
        <ele>193</ele>
        <time>2022-09-05T09:43:47Z</time>
      </trkpt>
      <trkpt lat="46.9262" lon="-1.02763">
        <ele>188</ele>
        <time>2022-09-05T09:44:36Z</time>
      </trkpt>
      <trkpt lat="46.92614" lon="-1.02737">
        <ele>188</ele>
        <time>2022-09-05T09:44:39Z</time>
      </trkpt>
      <trkpt lat="46.92597" lon="-1.02686">
        <ele>188</ele>
        <time>2022-09-05T09:44:46Z</time>
      </trkpt>
      <trkpt lat="46.92543" lon="-1.02552">
        <ele>188</ele>
        <time>2022-09-05T09:45:05Z</time>
      </trkpt>
      <trkpt lat="46.92516" lon="-1.02484">
        <ele>189</ele>
        <time>2022-09-05T09:45:14Z</time>
      </trkpt>
      <trkpt lat="46.9251" lon="-1.02454">
        <ele>189</ele>
        <time>2022-09-05T09:45:18Z</time>
      </trkpt>
      <trkpt lat="46.92506" lon="-1.02421">
        <ele>188</ele>
        <time>2022-09-05T09:45:22Z</time>
      </trkpt>
      <trkpt lat="46.92492" lon="-1.02027">
        <ele>187</ele>
        <time>2022-09-05T09:46:10Z</time>
      </trkpt>
      <trkpt lat="46.92485" lon="-1.02022">
        <ele>186</ele>
        <time>2022-09-05T09:46:12Z</time>
      </trkpt>
      <trkpt lat="46.92492" lon="-1.02027">
        <ele>187</ele>
        <time>2022-09-05T09:46:13Z</time>
      </trkpt>
      <trkpt lat="46.92463" lon="-1.01264">
        <ele>184</ele>
        <time>2022-09-05T09:47:46Z</time>
      </trkpt>
      <trkpt lat="46.92465" lon="-1.01227">
        <ele>185</ele>
        <time>2022-09-05T09:47:50Z</time>
      </trkpt>
      <trkpt lat="46.92471" lon="-1.01178">
        <ele>187</ele>
        <time>2022-09-05T09:47:56Z</time>
      </trkpt>
      <trkpt lat="46.92491" lon="-1.01045">
        <ele>184</ele>
        <time>2022-09-05T09:48:13Z</time>
      </trkpt>
      <trkpt lat="46.925" lon="-1.01014">
        <ele>183</ele>
        <time>2022-09-05T09:48:17Z</time>
      </trkpt>
      <trkpt lat="46.92506" lon="-1.01001">
        <ele>183</ele>
        <time>2022-09-05T09:48:19Z</time>
      </trkpt>
      <trkpt lat="46.92519" lon="-1.00982">
        <ele>183</ele>
        <time>2022-09-05T09:48:22Z</time>
      </trkpt>
      <trkpt lat="46.92534" lon="-1.00966">
        <ele>182</ele>
        <time>2022-09-05T09:48:25Z</time>
      </trkpt>
      <trkpt lat="46.92639" lon="-1.0088">
        <ele>178</ele>
        <time>2022-09-05T09:48:47Z</time>
      </trkpt>
      <trkpt lat="46.92661" lon="-1.00854">
        <ele>177</ele>
        <time>2022-09-05T09:48:52Z</time>
      </trkpt>
      <trkpt lat="46.9268" lon="-1.0082">
        <ele>177</ele>
        <time>2022-09-05T09:48:57Z</time>
      </trkpt>
      <trkpt lat="46.9269" lon="-1.00794">
        <ele>177</ele>
        <time>2022-09-05T09:49:01Z</time>
      </trkpt>
      <trkpt lat="46.92702" lon="-1.00738">
        <ele>177</ele>
        <time>2022-09-05T09:49:08Z</time>
      </trkpt>
      <trkpt lat="46.92736" lon="-1.00558">
        <ele>179</ele>
        <time>2022-09-05T09:49:31Z</time>
      </trkpt>
      <trkpt lat="46.92744" lon="-1.00499">
        <ele>177</ele>
        <time>2022-09-05T09:49:38Z</time>
      </trkpt>
      <trkpt lat="46.92742" lon="-1.00444">
        <ele>177</ele>
        <time>2022-09-05T09:49:45Z</time>
      </trkpt>
      <trkpt lat="46.92735" lon="-1.00405">
        <ele>176</ele>
        <time>2022-09-05T09:49:50Z</time>
      </trkpt>
      <trkpt lat="46.92725" lon="-1.00372">
        <ele>175</ele>
        <time>2022-09-05T09:49:54Z</time>
      </trkpt>
      <trkpt lat="46.92614" lon="-1.00054">
        <ele>177</ele>
        <time>2022-09-05T09:50:37Z</time>
      </trkpt>
      <trkpt lat="46.92604" lon="-1.00018">
        <ele>176</ele>
        <time>2022-09-05T09:50:42Z</time>
      </trkpt>
      <trkpt lat="46.92598" lon="-0.99989">
        <ele>175</ele>
        <time>2022-09-05T09:50:46Z</time>
      </trkpt>
      <trkpt lat="46.92594" lon="-0.99957">
        <ele>174</ele>
        <time>2022-09-05T09:50:50Z</time>
      </trkpt>
      <trkpt lat="46.92587" lon="-0.99892">
        <ele>172</ele>
        <time>2022-09-05T09:50:58Z</time>
      </trkpt>
      <trkpt lat="46.92584" lon="-0.99813">
        <ele>171</ele>
        <time>2022-09-05T09:51:07Z</time>
      </trkpt>
      <trkpt lat="46.92583" lon="-0.99697">
        <ele>173</ele>
        <time>2022-09-05T09:51:21Z</time>
      </trkpt>
      <trkpt lat="46.92585" lon="-0.99663">
        <ele>174</ele>
        <time>2022-09-05T09:51:26Z</time>
      </trkpt>
      <trkpt lat="46.92593" lon="-0.99612">
        <ele>172</ele>
        <time>2022-09-05T09:51:32Z</time>
      </trkpt>
      <trkpt lat="46.92655" lon="-0.99344">
        <ele>163</ele>
        <time>2022-09-05T09:52:06Z</time>
      </trkpt>
      <trkpt lat="46.92666" lon="-0.99313">
        <ele>162</ele>
        <time>2022-09-05T09:52:11Z</time>
      </trkpt>
      <trkpt lat="46.92692" lon="-0.99256">
        <ele>163</ele>
        <time>2022-09-05T09:52:19Z</time>
      </trkpt>
      <trkpt lat="46.92752" lon="-0.99163">
        <ele>168</ele>
        <time>2022-09-05T09:52:34Z</time>
      </trkpt>
      <trkpt lat="46.92764" lon="-0.99138">
        <ele>170</ele>
        <time>2022-09-05T09:52:38Z</time>
      </trkpt>
      <trkpt lat="46.92772" lon="-0.99115">
        <ele>171</ele>
        <time>2022-09-05T09:52:41Z</time>
      </trkpt>
      <trkpt lat="46.92772" lon="-0.99099">
        <ele>172</ele>
        <time>2022-09-05T09:52:43Z</time>
      </trkpt>
      <trkpt lat="46.92774" lon="-0.99092">
        <ele>173</ele>
        <time>2022-09-05T09:52:44Z</time>
      </trkpt>
      <trkpt lat="46.92781" lon="-0.99082">
        <ele>173</ele>
        <time>2022-09-05T09:52:46Z</time>
      </trkpt>
      <trkpt lat="46.92787" lon="-0.99064">
        <ele>173</ele>
        <time>2022-09-05T09:52:48Z</time>
      </trkpt>
      <trkpt lat="46.92792" lon="-0.99026">
        <ele>174</ele>
        <time>2022-09-05T09:52:53Z</time>
      </trkpt>
      <trkpt lat="46.92796" lon="-0.98937">
        <ele>177</ele>
        <time>2022-09-05T09:53:04Z</time>
      </trkpt>
      <trkpt lat="46.92806" lon="-0.98877">
        <ele>178</ele>
        <time>2022-09-05T09:53:11Z</time>
      </trkpt>
      <trkpt lat="46.92817" lon="-0.98837">
        <ele>178</ele>
        <time>2022-09-05T09:53:17Z</time>
      </trkpt>
      <trkpt lat="46.92829" lon="-0.98805">
        <ele>178</ele>
        <time>2022-09-05T09:53:21Z</time>
      </trkpt>
      <trkpt lat="46.92861" lon="-0.98739">
        <ele>180</ele>
        <time>2022-09-05T09:53:31Z</time>
      </trkpt>
      <trkpt lat="46.92872" lon="-0.9871">
        <ele>181</ele>
        <time>2022-09-05T09:53:35Z</time>
      </trkpt>
      <trkpt lat="46.92877" lon="-0.98691">
        <ele>182</ele>
        <time>2022-09-05T09:53:37Z</time>
      </trkpt>
      <trkpt lat="46.92875" lon="-0.98678">
        <ele>182</ele>
        <time>2022-09-05T09:53:39Z</time>
      </trkpt>
      <trkpt lat="46.9288" lon="-0.98663">
        <ele>183</ele>
        <time>2022-09-05T09:53:41Z</time>
      </trkpt>
      <trkpt lat="46.92884" lon="-0.98659">
        <ele>183</ele>
        <time>2022-09-05T09:53:42Z</time>
      </trkpt>
      <trkpt lat="46.92888" lon="-0.98633">
        <ele>183</ele>
        <time>2022-09-05T09:53:45Z</time>
      </trkpt>
      <trkpt lat="46.9288" lon="-0.98585">
        <ele>184</ele>
        <time>2022-09-05T09:53:51Z</time>
      </trkpt>
      <trkpt lat="46.92836" lon="-0.98393">
        <ele>185</ele>
        <time>2022-09-05T09:54:16Z</time>
      </trkpt>
      <trkpt lat="46.9282" lon="-0.98357">
        <ele>186</ele>
        <time>2022-09-05T09:54:21Z</time>
      </trkpt>
      <trkpt lat="46.9279" lon="-0.98306">
        <ele>187</ele>
        <time>2022-09-05T09:54:29Z</time>
      </trkpt>
      <trkpt lat="46.9277" lon="-0.98265">
        <ele>187</ele>
        <time>2022-09-05T09:54:35Z</time>
      </trkpt>
      <trkpt lat="46.92758" lon="-0.98226">
        <ele>187</ele>
        <time>2022-09-05T09:54:40Z</time>
      </trkpt>
      <trkpt lat="46.92749" lon="-0.98178">
        <ele>187</ele>
        <time>2022-09-05T09:54:47Z</time>
      </trkpt>
      <trkpt lat="46.92733" lon="-0.98067">
        <ele>189</ele>
        <time>2022-09-05T09:55:00Z</time>
      </trkpt>
      <trkpt lat="46.92723" lon="-0.98024">
        <ele>191</ele>
        <time>2022-09-05T09:55:06Z</time>
      </trkpt>
      <trkpt lat="46.92714" lon="-0.97998">
        <ele>192</ele>
        <time>2022-09-05T09:55:09Z</time>
      </trkpt>
      <trkpt lat="46.92697" lon="-0.97963">
        <ele>193</ele>
        <time>2022-09-05T09:55:15Z</time>
      </trkpt>
      <trkpt lat="46.92678" lon="-0.97928">
        <ele>195</ele>
        <time>2022-09-05T09:55:20Z</time>
      </trkpt>
      <trkpt lat="46.92617" lon="-0.97837">
        <ele>199</ele>
        <time>2022-09-05T09:55:36Z</time>
      </trkpt>
      <trkpt lat="46.9258" lon="-0.97759">
        <ele>199</ele>
        <time>2022-09-05T09:55:47Z</time>
      </trkpt>
      <trkpt lat="46.92533" lon="-0.97647">
        <ele>204</ele>
        <time>2022-09-05T09:56:03Z</time>
      </trkpt>
      <trkpt lat="46.92498" lon="-0.97576">
        <ele>207</ele>
        <time>2022-09-05T09:56:14Z</time>
      </trkpt>
      <trkpt lat="46.92457" lon="-0.97504">
        <ele>211</ele>
        <time>2022-09-05T09:56:25Z</time>
      </trkpt>
      <trkpt lat="46.92398" lon="-0.97419">
        <ele>210</ele>
        <time>2022-09-05T09:56:40Z</time>
      </trkpt>
      <trkpt lat="46.92371" lon="-0.97388">
        <ele>209</ele>
        <time>2022-09-05T09:56:46Z</time>
      </trkpt>
      <trkpt lat="46.92338" lon="-0.97357">
        <ele>207</ele>
        <time>2022-09-05T09:56:53Z</time>
      </trkpt>
      <trkpt lat="46.92315" lon="-0.97331">
        <ele>205</ele>
        <time>2022-09-05T09:56:58Z</time>
      </trkpt>
      <trkpt lat="46.92312" lon="-0.97314">
        <ele>204</ele>
        <time>2022-09-05T09:57:00Z</time>
      </trkpt>
      <trkpt lat="46.92302" lon="-0.97309">
        <ele>204</ele>
        <time>2022-09-05T09:57:02Z</time>
      </trkpt>
      <trkpt lat="46.92297" lon="-0.97313">
        <ele>204</ele>
        <time>2022-09-05T09:57:03Z</time>
      </trkpt>
      <trkpt lat="46.92286" lon="-0.97313">
        <ele>203</ele>
        <time>2022-09-05T09:57:05Z</time>
      </trkpt>
      <trkpt lat="46.92276" lon="-0.97302">
        <ele>202</ele>
        <time>2022-09-05T09:57:07Z</time>
      </trkpt>
      <trkpt lat="46.92272" lon="-0.97289">
        <ele>202</ele>
        <time>2022-09-05T09:57:09Z</time>
      </trkpt>
      <trkpt lat="46.92272" lon="-0.97281">
        <ele>202</ele>
        <time>2022-09-05T09:57:10Z</time>
      </trkpt>
      <trkpt lat="46.92275" lon="-0.97272">
        <ele>202</ele>
        <time>2022-09-05T09:57:11Z</time>
      </trkpt>
      <trkpt lat="46.92278" lon="-0.97265">
        <ele>202</ele>
        <time>2022-09-05T09:57:12Z</time>
      </trkpt>
      <trkpt lat="46.92286" lon="-0.97258">
        <ele>202</ele>
        <time>2022-09-05T09:57:14Z</time>
      </trkpt>
      <trkpt lat="46.92293" lon="-0.97257">
        <ele>203</ele>
        <time>2022-09-05T09:57:15Z</time>
      </trkpt>
      <trkpt lat="46.92298" lon="-0.97259">
        <ele>203</ele>
        <time>2022-09-05T09:57:16Z</time>
      </trkpt>
      <trkpt lat="46.92317" lon="-0.97241">
        <ele>204</ele>
        <time>2022-09-05T09:57:20Z</time>
      </trkpt>
      <trkpt lat="46.92328" lon="-0.97204">
        <ele>205</ele>
        <time>2022-09-05T09:57:25Z</time>
      </trkpt>
      <trkpt lat="46.92327" lon="-0.97191">
        <ele>205</ele>
        <time>2022-09-05T09:57:27Z</time>
      </trkpt>
      <trkpt lat="46.92257" lon="-0.97052">
        <ele>205</ele>
        <time>2022-09-05T09:57:48Z</time>
      </trkpt>
      <trkpt lat="46.92237" lon="-0.97007">
        <ele>205</ele>
        <time>2022-09-05T09:57:54Z</time>
      </trkpt>
      <trkpt lat="46.92225" lon="-0.96968">
        <ele>204</ele>
        <time>2022-09-05T09:57:59Z</time>
      </trkpt>
      <trkpt lat="46.92218" lon="-0.96927">
        <ele>204</ele>
        <time>2022-09-05T09:58:04Z</time>
      </trkpt>
      <trkpt lat="46.92208" lon="-0.96825">
        <ele>202</ele>
        <time>2022-09-05T09:58:17Z</time>
      </trkpt>
      <trkpt lat="46.92208" lon="-0.96791">
        <ele>202</ele>
        <time>2022-09-05T09:58:21Z</time>
      </trkpt>
      <trkpt lat="46.92213" lon="-0.9673">
        <ele>202</ele>
        <time>2022-09-05T09:58:28Z</time>
      </trkpt>
      <trkpt lat="46.92213" lon="-0.96687">
        <ele>202</ele>
        <time>2022-09-05T09:58:34Z</time>
      </trkpt>
      <trkpt lat="46.92206" lon="-0.96648">
        <ele>203</ele>
        <time>2022-09-05T09:58:39Z</time>
      </trkpt>
      <trkpt lat="46.9218" lon="-0.96574">
        <ele>205</ele>
        <time>2022-09-05T09:58:49Z</time>
      </trkpt>
      <trkpt lat="46.92176" lon="-0.96541">
        <ele>206</ele>
        <time>2022-09-05T09:58:53Z</time>
      </trkpt>
      <trkpt lat="46.92186" lon="-0.96483">
        <ele>206</ele>
        <time>2022-09-05T09:59:00Z</time>
      </trkpt>
      <trkpt lat="46.92198" lon="-0.96437">
        <ele>204</ele>
        <time>2022-09-05T09:59:06Z</time>
      </trkpt>
      <trkpt lat="46.9221" lon="-0.9641">
        <ele>203</ele>
        <time>2022-09-05T09:59:10Z</time>
      </trkpt>
      <trkpt lat="46.92266" lon="-0.96314">
        <ele>201</ele>
        <time>2022-09-05T09:59:25Z</time>
      </trkpt>
      <trkpt lat="46.92271" lon="-0.96297">
        <ele>200</ele>
        <time>2022-09-05T09:59:28Z</time>
      </trkpt>
      <trkpt lat="46.92272" lon="-0.96286">
        <ele>200</ele>
        <time>2022-09-05T09:59:29Z</time>
      </trkpt>
      <trkpt lat="46.92278" lon="-0.96283">
        <ele>200</ele>
        <time>2022-09-05T09:59:30Z</time>
      </trkpt>
      <trkpt lat="46.92284" lon="-0.96273">
        <ele>199</ele>
        <time>2022-09-05T09:59:32Z</time>
      </trkpt>
      <trkpt lat="46.92334" lon="-0.96147">
        <ele>198</ele>
        <time>2022-09-05T09:59:49Z</time>
      </trkpt>
      <trkpt lat="46.92345" lon="-0.9611">
        <ele>198</ele>
        <time>2022-09-05T09:59:54Z</time>
      </trkpt>
      <trkpt lat="46.92352" lon="-0.96067">
        <ele>198</ele>
        <time>2022-09-05T10:00:00Z</time>
      </trkpt>
      <trkpt lat="46.92369" lon="-0.95883">
        <ele>202</ele>
        <time>2022-09-05T10:00:22Z</time>
      </trkpt>
      <trkpt lat="46.92373" lon="-0.95872">
        <ele>202</ele>
        <time>2022-09-05T10:00:24Z</time>
      </trkpt>
      <trkpt lat="46.92389" lon="-0.9587">
        <ele>204</ele>
        <time>2022-09-05T10:00:27Z</time>
      </trkpt>
      <trkpt lat="46.92422" lon="-0.95881">
        <ele>208</ele>
        <time>2022-09-05T10:00:33Z</time>
      </trkpt>
      <trkpt lat="46.92448" lon="-0.95884">
        <ele>210</ele>
        <time>2022-09-05T10:00:37Z</time>
      </trkpt>
      <trkpt lat="46.92473" lon="-0.95875">
        <ele>212</ele>
        <time>2022-09-05T10:00:42Z</time>
      </trkpt>
      <trkpt lat="46.92494" lon="-0.95857">
        <ele>213</ele>
        <time>2022-09-05T10:00:46Z</time>
      </trkpt>
      <trkpt lat="46.92601" lon="-0.95776">
        <ele>211</ele>
        <time>2022-09-05T10:01:08Z</time>
      </trkpt>
      <trkpt lat="46.92645" lon="-0.95753">
        <ele>207</ele>
        <time>2022-09-05T10:01:16Z</time>
      </trkpt>
      <trkpt lat="46.92668" lon="-0.95744">
        <ele>206</ele>
        <time>2022-09-05T10:01:20Z</time>
      </trkpt>
      <trkpt lat="46.92686" lon="-0.95739">
        <ele>205</ele>
        <time>2022-09-05T10:01:23Z</time>
      </trkpt>
      <trkpt lat="46.92799" lon="-0.95732">
        <ele>203</ele>
        <time>2022-09-05T10:01:44Z</time>
      </trkpt>
      <trkpt lat="46.92812" lon="-0.95733">
        <ele>203</ele>
        <time>2022-09-05T10:01:46Z</time>
      </trkpt>
      <trkpt lat="46.92867" lon="-0.95761">
        <ele>205</ele>
        <time>2022-09-05T10:01:56Z</time>
      </trkpt>
      <trkpt lat="46.92887" lon="-0.95768">
        <ele>205</ele>
        <time>2022-09-05T10:02:00Z</time>
      </trkpt>
      <trkpt lat="46.9291" lon="-0.95773">
        <ele>205</ele>
        <time>2022-09-05T10:02:04Z</time>
      </trkpt>
      <trkpt lat="46.92954" lon="-0.95774">
        <ele>206</ele>
        <time>2022-09-05T10:02:12Z</time>
      </trkpt>
      <trkpt lat="46.92993" lon="-0.95778">
        <ele>207</ele>
        <time>2022-09-05T10:02:19Z</time>
      </trkpt>
      <trkpt lat="46.93056" lon="-0.95789">
        <ele>207</ele>
        <time>2022-09-05T10:02:30Z</time>
      </trkpt>
      <trkpt lat="46.93114" lon="-0.95794">
        <ele>207</ele>
        <time>2022-09-05T10:02:40Z</time>
      </trkpt>
      <trkpt lat="46.93189" lon="-0.95807">
        <ele>207</ele>
        <time>2022-09-05T10:02:54Z</time>
      </trkpt>
      <trkpt lat="46.93208" lon="-0.95808">
        <ele>207</ele>
        <time>2022-09-05T10:02:57Z</time>
      </trkpt>
      <trkpt lat="46.93338" lon="-0.95788">
        <ele>201</ele>
        <time>2022-09-05T10:03:20Z</time>
      </trkpt>
      <trkpt lat="46.9336" lon="-0.95792">
        <ele>201</ele>
        <time>2022-09-05T10:03:24Z</time>
      </trkpt>
      <trkpt lat="46.93387" lon="-0.958">
        <ele>201</ele>
        <time>2022-09-05T10:03:29Z</time>
      </trkpt>
      <trkpt lat="46.93434" lon="-0.95807">
        <ele>201</ele>
        <time>2022-09-05T10:03:38Z</time>
      </trkpt>
      <trkpt lat="46.93457" lon="-0.95805">
        <ele>201</ele>
        <time>2022-09-05T10:03:42Z</time>
      </trkpt>
      <trkpt lat="46.93522" lon="-0.9579">
        <ele>200</ele>
        <time>2022-09-05T10:03:54Z</time>
      </trkpt>
      <trkpt lat="46.93596" lon="-0.95753">
        <ele>196</ele>
        <time>2022-09-05T10:04:07Z</time>
      </trkpt>
      <trkpt lat="46.93642" lon="-0.95738">
        <ele>194</ele>
        <time>2022-09-05T10:04:16Z</time>
      </trkpt>
      <trkpt lat="46.93739" lon="-0.95715">
        <ele>191</ele>
        <time>2022-09-05T10:04:33Z</time>
      </trkpt>
      <trkpt lat="46.93788" lon="-0.95707">
        <ele>191</ele>
        <time>2022-09-05T10:04:42Z</time>
      </trkpt>
      <trkpt lat="46.93936" lon="-0.95707">
        <ele>189</ele>
        <time>2022-09-05T10:05:08Z</time>
      </trkpt>
      <trkpt lat="46.94027" lon="-0.9571">
        <ele>186</ele>
        <time>2022-09-05T10:05:25Z</time>
      </trkpt>
      <trkpt lat="46.94087" lon="-0.95715">
        <ele>184</ele>
        <time>2022-09-05T10:05:35Z</time>
      </trkpt>
      <trkpt lat="46.94146" lon="-0.95698">
        <ele>184</ele>
        <time>2022-09-05T10:05:46Z</time>
      </trkpt>
      <trkpt lat="46.94179" lon="-0.95696">
        <ele>184</ele>
        <time>2022-09-05T10:05:52Z</time>
      </trkpt>
      <trkpt lat="46.9423" lon="-0.95701">
        <ele>184</ele>
        <time>2022-09-05T10:06:01Z</time>
      </trkpt>
      <trkpt lat="46.94258" lon="-0.95708">
        <ele>183</ele>
        <time>2022-09-05T10:06:06Z</time>
      </trkpt>
      <trkpt lat="46.94286" lon="-0.95718">
        <ele>183</ele>
        <time>2022-09-05T10:06:11Z</time>
      </trkpt>
      <trkpt lat="46.94298" lon="-0.9572">
        <ele>183</ele>
        <time>2022-09-05T10:06:13Z</time>
      </trkpt>
      <trkpt lat="46.94309" lon="-0.95718">
        <ele>183</ele>
        <time>2022-09-05T10:06:15Z</time>
      </trkpt>
      <trkpt lat="46.9432" lon="-0.95711">
        <ele>183</ele>
        <time>2022-09-05T10:06:17Z</time>
      </trkpt>
      <trkpt lat="46.94333" lon="-0.95699">
        <ele>183</ele>
        <time>2022-09-05T10:06:20Z</time>
      </trkpt>
      <trkpt lat="46.94341" lon="-0.95684">
        <ele>183</ele>
        <time>2022-09-05T10:06:22Z</time>
      </trkpt>
      <trkpt lat="46.94347" lon="-0.95669">
        <ele>182</ele>
        <time>2022-09-05T10:06:25Z</time>
      </trkpt>
      <trkpt lat="46.9435" lon="-0.95639">
        <ele>182</ele>
        <time>2022-09-05T10:06:28Z</time>
      </trkpt>
      <trkpt lat="46.94352" lon="-0.95571">
        <ele>180</ele>
        <time>2022-09-05T10:06:37Z</time>
      </trkpt>
      <trkpt lat="46.94354" lon="-0.95548">
        <ele>179</ele>
        <time>2022-09-05T10:06:39Z</time>
      </trkpt>
      <trkpt lat="46.94359" lon="-0.95517">
        <ele>178</ele>
        <time>2022-09-05T10:06:43Z</time>
      </trkpt>
      <trkpt lat="46.94372" lon="-0.95465">
        <ele>178</ele>
        <time>2022-09-05T10:06:50Z</time>
      </trkpt>
      <trkpt lat="46.94384" lon="-0.95424">
        <ele>178</ele>
        <time>2022-09-05T10:06:55Z</time>
      </trkpt>
      <trkpt lat="46.94389" lon="-0.95415">
        <ele>178</ele>
        <time>2022-09-05T10:06:57Z</time>
      </trkpt>
      <trkpt lat="46.94411" lon="-0.95392">
        <ele>178</ele>
        <time>2022-09-05T10:07:02Z</time>
      </trkpt>
      <trkpt lat="46.94436" lon="-0.9544">
        <ele>176</ele>
        <time>2022-09-05T10:07:09Z</time>
      </trkpt>
      <trkpt lat="46.94464" lon="-0.95488">
        <ele>175</ele>
        <time>2022-09-05T10:07:17Z</time>
      </trkpt>
      <trkpt lat="46.94519" lon="-0.95582">
        <ele>174</ele>
        <time>2022-09-05T10:07:32Z</time>
      </trkpt>
      <trkpt lat="46.94559" lon="-0.95638">
        <ele>174</ele>
        <time>2022-09-05T10:07:41Z</time>
      </trkpt>
      <trkpt lat="46.94712" lon="-0.95822">
        <ele>176</ele>
        <time>2022-09-05T10:08:17Z</time>
      </trkpt>
      <trkpt lat="46.94832" lon="-0.95942">
        <ele>170</ele>
        <time>2022-09-05T10:08:43Z</time>
      </trkpt>
      <trkpt lat="46.94843" lon="-0.95923">
        <ele>170</ele>
        <time>2022-09-05T10:08:46Z</time>
      </trkpt>
      <trkpt lat="46.9487" lon="-0.95887">
        <ele>171</ele>
        <time>2022-09-05T10:08:52Z</time>
      </trkpt>
      <trkpt lat="46.94883" lon="-0.95866">
        <ele>171</ele>
        <time>2022-09-05T10:08:56Z</time>
      </trkpt>
      <trkpt lat="46.94895" lon="-0.95844">
        <ele>170</ele>
        <time>2022-09-05T10:08:59Z</time>
      </trkpt>
      <trkpt lat="46.94903" lon="-0.95821">
        <ele>170</ele>
        <time>2022-09-05T10:09:02Z</time>
      </trkpt>
      <trkpt lat="46.94911" lon="-0.95792">
        <ele>169</ele>
        <time>2022-09-05T10:09:06Z</time>
      </trkpt>
      <trkpt lat="46.94918" lon="-0.95748">
        <ele>168</ele>
        <time>2022-09-05T10:09:11Z</time>
      </trkpt>
      <trkpt lat="46.94925" lon="-0.957">
        <ele>168</ele>
        <time>2022-09-05T10:09:17Z</time>
      </trkpt>
      <trkpt lat="46.94931" lon="-0.9563">
        <ele>168</ele>
        <time>2022-09-05T10:09:26Z</time>
      </trkpt>
      <trkpt lat="46.94934" lon="-0.95615">
        <ele>167</ele>
        <time>2022-09-05T10:09:28Z</time>
      </trkpt>
      <trkpt lat="46.94942" lon="-0.95587">
        <ele>168</ele>
        <time>2022-09-05T10:09:31Z</time>
      </trkpt>
      <trkpt lat="46.9495" lon="-0.9557">
        <ele>168</ele>
        <time>2022-09-05T10:09:34Z</time>
      </trkpt>
      <trkpt lat="46.94958" lon="-0.95557">
        <ele>168</ele>
        <time>2022-09-05T10:09:36Z</time>
      </trkpt>
      <trkpt lat="46.95045" lon="-0.95448">
        <ele>169</ele>
        <time>2022-09-05T10:09:56Z</time>
      </trkpt>
      <trkpt lat="46.9512" lon="-0.95345">
        <ele>165</ele>
        <time>2022-09-05T10:10:15Z</time>
      </trkpt>
      <trkpt lat="46.95186" lon="-0.95266">
        <ele>166</ele>
        <time>2022-09-05T10:10:30Z</time>
      </trkpt>
      <trkpt lat="46.95209" lon="-0.95224">
        <ele>166</ele>
        <time>2022-09-05T10:10:36Z</time>
      </trkpt>
      <trkpt lat="46.95216" lon="-0.95193">
        <ele>165</ele>
        <time>2022-09-05T10:10:40Z</time>
      </trkpt>
      <trkpt lat="46.95214" lon="-0.9513">
        <ele>164</ele>
        <time>2022-09-05T10:10:48Z</time>
      </trkpt>
      <trkpt lat="46.95222" lon="-0.95131">
        <ele>164</ele>
        <time>2022-09-05T10:10:50Z</time>
      </trkpt>
      <trkpt lat="46.95263" lon="-0.95128">
        <ele>164</ele>
        <time>2022-09-05T10:10:57Z</time>
      </trkpt>
      <trkpt lat="46.95334" lon="-0.95129">
        <ele>162</ele>
        <time>2022-09-05T10:11:09Z</time>
      </trkpt>
      <trkpt lat="46.9538" lon="-0.95134">
        <ele>160</ele>
        <time>2022-09-05T10:11:18Z</time>
      </trkpt>
      <trkpt lat="46.95388" lon="-0.95132">
        <ele>160</ele>
        <time>2022-09-05T10:11:19Z</time>
      </trkpt>
      <trkpt lat="46.95396" lon="-0.95125">
        <ele>160</ele>
        <time>2022-09-05T10:11:21Z</time>
      </trkpt>
      <trkpt lat="46.95398" lon="-0.95109">
        <ele>160</ele>
        <time>2022-09-05T10:11:23Z</time>
      </trkpt>
      <trkpt lat="46.95396" lon="-0.95077">
        <ele>160</ele>
        <time>2022-09-05T10:11:27Z</time>
      </trkpt>
      <trkpt lat="46.95396" lon="-0.95062">
        <ele>160</ele>
        <time>2022-09-05T10:11:28Z</time>
      </trkpt>
      <trkpt lat="46.95405" lon="-0.95045">
        <ele>159</ele>
        <time>2022-09-05T10:11:31Z</time>
      </trkpt>
      <trkpt lat="46.95466" lon="-0.94981">
        <ele>156</ele>
        <time>2022-09-05T10:11:44Z</time>
      </trkpt>
      <trkpt lat="46.95477" lon="-0.94963">
        <ele>156</ele>
        <time>2022-09-05T10:11:47Z</time>
      </trkpt>
      <trkpt lat="46.95494" lon="-0.94854">
        <ele>154</ele>
        <time>2022-09-05T10:12:01Z</time>
      </trkpt>
      <trkpt lat="46.95503" lon="-0.94806">
        <ele>154</ele>
        <time>2022-09-05T10:12:07Z</time>
      </trkpt>
      <trkpt lat="46.95512" lon="-0.94788">
        <ele>154</ele>
        <time>2022-09-05T10:12:10Z</time>
      </trkpt>
      <trkpt lat="46.9553" lon="-0.9477">
        <ele>153</ele>
        <time>2022-09-05T10:12:14Z</time>
      </trkpt>
      <trkpt lat="46.95611" lon="-0.94718">
        <ele>148</ele>
        <time>2022-09-05T10:12:29Z</time>
      </trkpt>
      <trkpt lat="46.9564" lon="-0.9469">
        <ele>146</ele>
        <time>2022-09-05T10:12:35Z</time>
      </trkpt>
      <trkpt lat="46.95725" lon="-0.94576">
        <ele>144</ele>
        <time>2022-09-05T10:12:56Z</time>
      </trkpt>
      <trkpt lat="46.95764" lon="-0.94508">
        <ele>145</ele>
        <time>2022-09-05T10:13:07Z</time>
      </trkpt>
      <trkpt lat="46.95819" lon="-0.94365">
        <ele>146</ele>
        <time>2022-09-05T10:13:27Z</time>
      </trkpt>
      <trkpt lat="46.95823" lon="-0.94349">
        <ele>146</ele>
        <time>2022-09-05T10:13:29Z</time>
      </trkpt>
      <trkpt lat="46.95831" lon="-0.94298">
        <ele>147</ele>
        <time>2022-09-05T10:13:35Z</time>
      </trkpt>
      <trkpt lat="46.95837" lon="-0.94282">
        <ele>147</ele>
        <time>2022-09-05T10:13:37Z</time>
      </trkpt>
      <trkpt lat="46.95844" lon="-0.94271">
        <ele>147</ele>
        <time>2022-09-05T10:13:39Z</time>
      </trkpt>
      <trkpt lat="46.95861" lon="-0.94256">
        <ele>147</ele>
        <time>2022-09-05T10:13:43Z</time>
      </trkpt>
      <trkpt lat="46.95934" lon="-0.94213">
        <ele>146</ele>
        <time>2022-09-05T10:13:57Z</time>
      </trkpt>
      <trkpt lat="46.95958" lon="-0.9419">
        <ele>145</ele>
        <time>2022-09-05T10:14:02Z</time>
      </trkpt>
      <trkpt lat="46.96046" lon="-0.94089">
        <ele>139</ele>
        <time>2022-09-05T10:14:22Z</time>
      </trkpt>
      <trkpt lat="46.96051" lon="-0.94086">
        <ele>139</ele>
        <time>2022-09-05T10:14:23Z</time>
      </trkpt>
      <trkpt lat="46.95965" lon="-0.9362">
        <ele>140</ele>
        <time>2022-09-05T10:15:21Z</time>
      </trkpt>
      <trkpt lat="46.95952" lon="-0.93573">
        <ele>138</ele>
        <time>2022-09-05T10:15:27Z</time>
      </trkpt>
      <trkpt lat="46.95939" lon="-0.93545">
        <ele>137</ele>
        <time>2022-09-05T10:15:32Z</time>
      </trkpt>
      <trkpt lat="46.9586" lon="-0.93395">
        <ele>132</ele>
        <time>2022-09-05T10:15:55Z</time>
      </trkpt>
      <trkpt lat="46.95834" lon="-0.93344">
        <ele>131</ele>
        <time>2022-09-05T10:16:02Z</time>
      </trkpt>
      <trkpt lat="46.9581" lon="-0.93296">
        <ele>130</ele>
        <time>2022-09-05T10:16:10Z</time>
      </trkpt>
      <trkpt lat="46.95798" lon="-0.93258">
        <ele>130</ele>
        <time>2022-09-05T10:16:15Z</time>
      </trkpt>
      <trkpt lat="46.95793" lon="-0.93228">
        <ele>129</ele>
        <time>2022-09-05T10:16:18Z</time>
      </trkpt>
      <trkpt lat="46.9579" lon="-0.93207">
        <ele>128</ele>
        <time>2022-09-05T10:16:21Z</time>
      </trkpt>
      <trkpt lat="46.95791" lon="-0.93122">
        <ele>125</ele>
        <time>2022-09-05T10:16:31Z</time>
      </trkpt>
      <trkpt lat="46.95794" lon="-0.93065">
        <ele>122</ele>
        <time>2022-09-05T10:16:38Z</time>
      </trkpt>
      <trkpt lat="46.95798" lon="-0.93048">
        <ele>121</ele>
        <time>2022-09-05T10:16:40Z</time>
      </trkpt>
      <trkpt lat="46.95808" lon="-0.93031">
        <ele>120</ele>
        <time>2022-09-05T10:16:43Z</time>
      </trkpt>
      <trkpt lat="46.95815" lon="-0.93026">
        <ele>120</ele>
        <time>2022-09-05T10:16:45Z</time>
      </trkpt>
      <trkpt lat="46.95824" lon="-0.93023">
        <ele>120</ele>
        <time>2022-09-05T10:16:46Z</time>
      </trkpt>
      <trkpt lat="46.95835" lon="-0.93022">
        <ele>121</ele>
        <time>2022-09-05T10:16:48Z</time>
      </trkpt>
      <trkpt lat="46.95888" lon="-0.93032">
        <ele>122</ele>
        <time>2022-09-05T10:16:58Z</time>
      </trkpt>
      <trkpt lat="46.95897" lon="-0.9303">
        <ele>122</ele>
        <time>2022-09-05T10:16:59Z</time>
      </trkpt>
      <trkpt lat="46.9591" lon="-0.93019">
        <ele>122</ele>
        <time>2022-09-05T10:17:02Z</time>
      </trkpt>
      <trkpt lat="46.95916" lon="-0.93009">
        <ele>121</ele>
        <time>2022-09-05T10:17:04Z</time>
      </trkpt>
      <trkpt lat="46.95919" lon="-0.92998">
        <ele>121</ele>
        <time>2022-09-05T10:17:05Z</time>
      </trkpt>
      <trkpt lat="46.9592" lon="-0.92985">
        <ele>121</ele>
        <time>2022-09-05T10:17:07Z</time>
      </trkpt>
      <trkpt lat="46.95919" lon="-0.92971">
        <ele>120</ele>
        <time>2022-09-05T10:17:08Z</time>
      </trkpt>
      <trkpt lat="46.95916" lon="-0.92957">
        <ele>120</ele>
        <time>2022-09-05T10:17:10Z</time>
      </trkpt>
      <trkpt lat="46.9591" lon="-0.92943">
        <ele>120</ele>
        <time>2022-09-05T10:17:12Z</time>
      </trkpt>
      <trkpt lat="46.95902" lon="-0.92933">
        <ele>119</ele>
        <time>2022-09-05T10:17:14Z</time>
      </trkpt>
      <trkpt lat="46.95893" lon="-0.92925">
        <ele>119</ele>
        <time>2022-09-05T10:17:16Z</time>
      </trkpt>
      <trkpt lat="46.95875" lon="-0.92916">
        <ele>118</ele>
        <time>2022-09-05T10:17:19Z</time>
      </trkpt>
      <trkpt lat="46.95856" lon="-0.92911">
        <ele>118</ele>
        <time>2022-09-05T10:17:23Z</time>
      </trkpt>
      <trkpt lat="46.95819" lon="-0.92892">
        <ele>118</ele>
        <time>2022-09-05T10:17:30Z</time>
      </trkpt>
      <trkpt lat="46.95804" lon="-0.92881">
        <ele>118</ele>
        <time>2022-09-05T10:17:33Z</time>
      </trkpt>
      <trkpt lat="46.95791" lon="-0.92866">
        <ele>118</ele>
        <time>2022-09-05T10:17:36Z</time>
      </trkpt>
      <trkpt lat="46.95783" lon="-0.92854">
        <ele>118</ele>
        <time>2022-09-05T10:17:38Z</time>
      </trkpt>
      <trkpt lat="46.95771" lon="-0.92824">
        <ele>119</ele>
        <time>2022-09-05T10:17:42Z</time>
      </trkpt>
      <trkpt lat="46.95754" lon="-0.92767">
        <ele>121</ele>
        <time>2022-09-05T10:17:49Z</time>
      </trkpt>
      <trkpt lat="46.95747" lon="-0.92732">
        <ele>122</ele>
        <time>2022-09-05T10:17:54Z</time>
      </trkpt>
      <trkpt lat="46.95741" lon="-0.92681">
        <ele>124</ele>
        <time>2022-09-05T10:18:00Z</time>
      </trkpt>
      <trkpt lat="46.95741" lon="-0.9265">
        <ele>125</ele>
        <time>2022-09-05T10:18:04Z</time>
      </trkpt>
      <trkpt lat="46.95746" lon="-0.92614">
        <ele>127</ele>
        <time>2022-09-05T10:18:08Z</time>
      </trkpt>
      <trkpt lat="46.95753" lon="-0.92583">
        <ele>128</ele>
        <time>2022-09-05T10:18:12Z</time>
      </trkpt>
      <trkpt lat="46.95763" lon="-0.9255">
        <ele>130</ele>
        <time>2022-09-05T10:18:17Z</time>
      </trkpt>
      <trkpt lat="46.95779" lon="-0.9252">
        <ele>131</ele>
        <time>2022-09-05T10:18:21Z</time>
      </trkpt>
      <trkpt lat="46.95821" lon="-0.92462">
        <ele>134</ele>
        <time>2022-09-05T10:18:32Z</time>
      </trkpt>
      <trkpt lat="46.95899" lon="-0.9237">
        <ele>139</ele>
        <time>2022-09-05T10:18:49Z</time>
      </trkpt>
      <trkpt lat="46.95937" lon="-0.92338">
        <ele>141</ele>
        <time>2022-09-05T10:18:57Z</time>
      </trkpt>
      <trkpt lat="46.95968" lon="-0.92316">
        <ele>142</ele>
        <time>2022-09-05T10:19:03Z</time>
      </trkpt>
      <trkpt lat="46.96008" lon="-0.92283">
        <ele>144</ele>
        <time>2022-09-05T10:19:11Z</time>
      </trkpt>
      <trkpt lat="46.96015" lon="-0.92272">
        <ele>145</ele>
        <time>2022-09-05T10:19:13Z</time>
      </trkpt>
      <trkpt lat="46.96019" lon="-0.92263">
        <ele>145</ele>
        <time>2022-09-05T10:19:15Z</time>
      </trkpt>
      <trkpt lat="46.96021" lon="-0.92253">
        <ele>146</ele>
        <time>2022-09-05T10:19:16Z</time>
      </trkpt>
      <trkpt lat="46.9602" lon="-0.9223">
        <ele>147</ele>
        <time>2022-09-05T10:19:19Z</time>
      </trkpt>
      <trkpt lat="46.96011" lon="-0.92212">
        <ele>147</ele>
        <time>2022-09-05T10:19:21Z</time>
      </trkpt>
      <trkpt lat="46.96003" lon="-0.92203">
        <ele>148</ele>
        <time>2022-09-05T10:19:23Z</time>
      </trkpt>
      <trkpt lat="46.95992" lon="-0.92197">
        <ele>148</ele>
        <time>2022-09-05T10:19:25Z</time>
      </trkpt>
      <trkpt lat="46.95879" lon="-0.92148">
        <ele>151</ele>
        <time>2022-09-05T10:19:46Z</time>
      </trkpt>
      <trkpt lat="46.95864" lon="-0.92137">
        <ele>151</ele>
        <time>2022-09-05T10:19:49Z</time>
      </trkpt>
      <trkpt lat="46.95858" lon="-0.92128">
        <ele>152</ele>
        <time>2022-09-05T10:19:51Z</time>
      </trkpt>
      <trkpt lat="46.95846" lon="-0.92102">
        <ele>152</ele>
        <time>2022-09-05T10:19:55Z</time>
      </trkpt>
      <trkpt lat="46.95752" lon="-0.91833">
        <ele>154</ele>
        <time>2022-09-05T10:20:31Z</time>
      </trkpt>
      <trkpt lat="46.95737" lon="-0.91786">
        <ele>153</ele>
        <time>2022-09-05T10:20:38Z</time>
      </trkpt>
      <trkpt lat="46.95731" lon="-0.91763">
        <ele>153</ele>
        <time>2022-09-05T10:20:41Z</time>
      </trkpt>
      <trkpt lat="46.95727" lon="-0.9174">
        <ele>153</ele>
        <time>2022-09-05T10:20:43Z</time>
      </trkpt>
      <trkpt lat="46.95675" lon="-0.91362">
        <ele>157</ele>
        <time>2022-09-05T10:21:30Z</time>
      </trkpt>
      <trkpt lat="46.95674" lon="-0.91339">
        <ele>157</ele>
        <time>2022-09-05T10:21:33Z</time>
      </trkpt>
      <trkpt lat="46.95677" lon="-0.91285">
        <ele>156</ele>
        <time>2022-09-05T10:21:40Z</time>
      </trkpt>
      <trkpt lat="46.9571" lon="-0.90948">
        <ele>153</ele>
        <time>2022-09-05T10:22:21Z</time>
      </trkpt>
      <trkpt lat="46.9577" lon="-0.90393">
        <ele>149</ele>
        <time>2022-09-05T10:23:29Z</time>
      </trkpt>
      <trkpt lat="46.95784" lon="-0.90307">
        <ele>150</ele>
        <time>2022-09-05T10:23:40Z</time>
      </trkpt>
      <trkpt lat="46.9581" lon="-0.90186">
        <ele>149</ele>
        <time>2022-09-05T10:23:55Z</time>
      </trkpt>
      <trkpt lat="46.95821" lon="-0.90144">
        <ele>147</ele>
        <time>2022-09-05T10:24:01Z</time>
      </trkpt>
      <trkpt lat="46.95829" lon="-0.9012">
        <ele>146</ele>
        <time>2022-09-05T10:24:04Z</time>
      </trkpt>
      <trkpt lat="46.95838" lon="-0.901">
        <ele>144</ele>
        <time>2022-09-05T10:24:07Z</time>
      </trkpt>
      <trkpt lat="46.95881" lon="-0.90041">
        <ele>143</ele>
        <time>2022-09-05T10:24:17Z</time>
      </trkpt>
      <trkpt lat="46.95891" lon="-0.90021">
        <ele>142</ele>
        <time>2022-09-05T10:24:20Z</time>
      </trkpt>
      <trkpt lat="46.95903" lon="-0.89987">
        <ele>141</ele>
        <time>2022-09-05T10:24:25Z</time>
      </trkpt>
      <trkpt lat="46.95912" lon="-0.89951">
        <ele>140</ele>
        <time>2022-09-05T10:24:30Z</time>
      </trkpt>
      <trkpt lat="46.95916" lon="-0.89934">
        <ele>140</ele>
        <time>2022-09-05T10:24:32Z</time>
      </trkpt>
      <trkpt lat="46.95925" lon="-0.89867">
        <ele>140</ele>
        <time>2022-09-05T10:24:40Z</time>
      </trkpt>
      <trkpt lat="46.95925" lon="-0.89843">
        <ele>139</ele>
        <time>2022-09-05T10:24:43Z</time>
      </trkpt>
      <trkpt lat="46.9592" lon="-0.89764">
        <ele>139</ele>
        <time>2022-09-05T10:24:53Z</time>
      </trkpt>
      <trkpt lat="46.95917" lon="-0.89745">
        <ele>139</ele>
        <time>2022-09-05T10:24:55Z</time>
      </trkpt>
      <trkpt lat="46.95887" lon="-0.89629">
        <ele>137</ele>
        <time>2022-09-05T10:25:10Z</time>
      </trkpt>
      <trkpt lat="46.95877" lon="-0.89578">
        <ele>135</ele>
        <time>2022-09-05T10:25:17Z</time>
      </trkpt>
      <trkpt lat="46.9587" lon="-0.89557">
        <ele>134</ele>
        <time>2022-09-05T10:25:19Z</time>
      </trkpt>
      <trkpt lat="46.95865" lon="-0.89563">
        <ele>134</ele>
        <time>2022-09-05T10:25:21Z</time>
      </trkpt>
      <trkpt lat="46.95841" lon="-0.89571">
        <ele>134</ele>
        <time>2022-09-05T10:25:25Z</time>
      </trkpt>
      <trkpt lat="46.95828" lon="-0.89576">
        <ele>134</ele>
        <time>2022-09-05T10:25:27Z</time>
      </trkpt>
      <trkpt lat="46.95818" lon="-0.89583">
        <ele>134</ele>
        <time>2022-09-05T10:25:29Z</time>
      </trkpt>
      <trkpt lat="46.95813" lon="-0.89591">
        <ele>135</ele>
        <time>2022-09-05T10:25:31Z</time>
      </trkpt>
      <trkpt lat="46.95806" lon="-0.89603">
        <ele>135</ele>
        <time>2022-09-05T10:25:33Z</time>
      </trkpt>
      <trkpt lat="46.95754" lon="-0.89661">
        <ele>135</ele>
        <time>2022-09-05T10:25:44Z</time>
      </trkpt>
      <trkpt lat="46.95676" lon="-0.89756">
        <ele>139</ele>
        <time>2022-09-05T10:26:02Z</time>
      </trkpt>
      <trkpt lat="46.95638" lon="-0.89788">
        <ele>140</ele>
        <time>2022-09-05T10:26:10Z</time>
      </trkpt>
      <trkpt lat="46.95609" lon="-0.89803">
        <ele>141</ele>
        <time>2022-09-05T10:26:16Z</time>
      </trkpt>
      <trkpt lat="46.95587" lon="-0.89811">
        <ele>141</ele>
        <time>2022-09-05T10:26:20Z</time>
      </trkpt>
      <trkpt lat="46.95551" lon="-0.89814">
        <ele>141</ele>
        <time>2022-09-05T10:26:26Z</time>
      </trkpt>
      <trkpt lat="46.9552" lon="-0.89808">
        <ele>142</ele>
        <time>2022-09-05T10:26:32Z</time>
      </trkpt>
      <trkpt lat="46.95502" lon="-0.89801">
        <ele>142</ele>
        <time>2022-09-05T10:26:35Z</time>
      </trkpt>
      <trkpt lat="46.9548" lon="-0.89788">
        <ele>143</ele>
        <time>2022-09-05T10:26:39Z</time>
      </trkpt>
      <trkpt lat="46.95448" lon="-0.89773">
        <ele>143</ele>
        <time>2022-09-05T10:26:45Z</time>
      </trkpt>
      <trkpt lat="46.95269" lon="-0.89674">
        <ele>148</ele>
        <time>2022-09-05T10:27:19Z</time>
      </trkpt>
      <trkpt lat="46.95219" lon="-0.89649">
        <ele>148</ele>
        <time>2022-09-05T10:27:29Z</time>
      </trkpt>
      <trkpt lat="46.95203" lon="-0.89638">
        <ele>148</ele>
        <time>2022-09-05T10:27:32Z</time>
      </trkpt>
      <trkpt lat="46.95133" lon="-0.8959">
        <ele>151</ele>
        <time>2022-09-05T10:27:45Z</time>
      </trkpt>
      <trkpt lat="46.95099" lon="-0.89574">
        <ele>154</ele>
        <time>2022-09-05T10:27:52Z</time>
      </trkpt>
      <trkpt lat="46.95067" lon="-0.89566">
        <ele>155</ele>
        <time>2022-09-05T10:27:58Z</time>
      </trkpt>
      <trkpt lat="46.95031" lon="-0.89565">
        <ele>156</ele>
        <time>2022-09-05T10:28:04Z</time>
      </trkpt>
      <trkpt lat="46.95004" lon="-0.8957">
        <ele>157</ele>
        <time>2022-09-05T10:28:09Z</time>
      </trkpt>
      <trkpt lat="46.94977" lon="-0.89581">
        <ele>158</ele>
        <time>2022-09-05T10:28:14Z</time>
      </trkpt>
      <trkpt lat="46.94962" lon="-0.89589">
        <ele>158</ele>
        <time>2022-09-05T10:28:17Z</time>
      </trkpt>
      <trkpt lat="46.9494" lon="-0.89606">
        <ele>158</ele>
        <time>2022-09-05T10:28:21Z</time>
      </trkpt>
      <trkpt lat="46.94852" lon="-0.89693">
        <ele>162</ele>
        <time>2022-09-05T10:28:40Z</time>
      </trkpt>
      <trkpt lat="46.94856" lon="-0.89707">
        <ele>162</ele>
        <time>2022-09-05T10:28:42Z</time>
      </trkpt>
      <trkpt lat="46.94855" lon="-0.89714">
        <ele>161</ele>
        <time>2022-09-05T10:28:43Z</time>
      </trkpt>
      <trkpt lat="46.94849" lon="-0.89726">
        <ele>161</ele>
        <time>2022-09-05T10:28:44Z</time>
      </trkpt>
      <trkpt lat="46.94843" lon="-0.89729">
        <ele>161</ele>
        <time>2022-09-05T10:28:46Z</time>
      </trkpt>
      <trkpt lat="46.94837" lon="-0.89728">
        <ele>162</ele>
        <time>2022-09-05T10:28:47Z</time>
      </trkpt>
      <trkpt lat="46.94831" lon="-0.89723">
        <ele>162</ele>
        <time>2022-09-05T10:28:48Z</time>
      </trkpt>
      <trkpt lat="46.94828" lon="-0.89715">
        <ele>162</ele>
        <time>2022-09-05T10:28:49Z</time>
      </trkpt>
      <trkpt lat="46.94827" lon="-0.89706">
        <ele>163</ele>
        <time>2022-09-05T10:28:50Z</time>
      </trkpt>
      <trkpt lat="46.94782" lon="-0.897">
        <ele>164</ele>
        <time>2022-09-05T10:28:58Z</time>
      </trkpt>
      <trkpt lat="46.94755" lon="-0.89693">
        <ele>165</ele>
        <time>2022-09-05T10:29:03Z</time>
      </trkpt>
      <trkpt lat="46.9473" lon="-0.89681">
        <ele>165</ele>
        <time>2022-09-05T10:29:08Z</time>
      </trkpt>
      <trkpt lat="46.94677" lon="-0.89652">
        <ele>167</ele>
        <time>2022-09-05T10:29:18Z</time>
      </trkpt>
      <trkpt lat="46.94656" lon="-0.89644">
        <ele>168</ele>
        <time>2022-09-05T10:29:22Z</time>
      </trkpt>
      <trkpt lat="46.94612" lon="-0.89635">
        <ele>169</ele>
        <time>2022-09-05T10:29:30Z</time>
      </trkpt>
      <trkpt lat="46.94577" lon="-0.89633">
        <ele>170</ele>
        <time>2022-09-05T10:29:36Z</time>
      </trkpt>
      <trkpt lat="46.94555" lon="-0.89634">
        <ele>171</ele>
        <time>2022-09-05T10:29:40Z</time>
      </trkpt>
      <trkpt lat="46.9445" lon="-0.89664">
        <ele>173</ele>
        <time>2022-09-05T10:29:59Z</time>
      </trkpt>
      <trkpt lat="46.94254" lon="-0.89728">
        <ele>174</ele>
        <time>2022-09-05T10:30:34Z</time>
      </trkpt>
      <trkpt lat="46.94197" lon="-0.89739">
        <ele>172</ele>
        <time>2022-09-05T10:30:45Z</time>
      </trkpt>
      <trkpt lat="46.94106" lon="-0.8975">
        <ele>172</ele>
        <time>2022-09-05T10:31:01Z</time>
      </trkpt>
      <trkpt lat="46.93939" lon="-0.89767">
        <ele>175</ele>
        <time>2022-09-05T10:31:31Z</time>
      </trkpt>
      <trkpt lat="46.93888" lon="-0.89766">
        <ele>175</ele>
        <time>2022-09-05T10:31:40Z</time>
      </trkpt>
      <trkpt lat="46.93783" lon="-0.89756">
        <ele>176</ele>
        <time>2022-09-05T10:31:59Z</time>
      </trkpt>
      <trkpt lat="46.93635" lon="-0.8975">
        <ele>179</ele>
        <time>2022-09-05T10:32:25Z</time>
      </trkpt>
      <trkpt lat="46.93501" lon="-0.89753">
        <ele>187</ele>
        <time>2022-09-05T10:32:49Z</time>
      </trkpt>
      <trkpt lat="46.935" lon="-0.8976">
        <ele>187</ele>
        <time>2022-09-05T10:32:50Z</time>
      </trkpt>
      <trkpt lat="46.93494" lon="-0.89769">
        <ele>187</ele>
        <time>2022-09-05T10:32:51Z</time>
      </trkpt>
      <trkpt lat="46.93485" lon="-0.89771">
        <ele>188</ele>
        <time>2022-09-05T10:32:53Z</time>
      </trkpt>
      <trkpt lat="46.93481" lon="-0.89769">
        <ele>188</ele>
        <time>2022-09-05T10:32:53Z</time>
      </trkpt>
      <trkpt lat="46.93476" lon="-0.89763">
        <ele>188</ele>
        <time>2022-09-05T10:32:55Z</time>
      </trkpt>
      <trkpt lat="46.93423" lon="-0.89794">
        <ele>191</ele>
        <time>2022-09-05T10:33:05Z</time>
      </trkpt>
      <trkpt lat="46.93402" lon="-0.89814">
        <ele>192</ele>
        <time>2022-09-05T10:33:09Z</time>
      </trkpt>
      <trkpt lat="46.93319" lon="-0.89907">
        <ele>194</ele>
        <time>2022-09-05T10:33:28Z</time>
      </trkpt>
      <trkpt lat="46.93257" lon="-0.89973">
        <ele>194</ele>
        <time>2022-09-05T10:33:41Z</time>
      </trkpt>
      <trkpt lat="46.93163" lon="-0.90057">
        <ele>194</ele>
        <time>2022-09-05T10:34:01Z</time>
      </trkpt>
      <trkpt lat="46.93148" lon="-0.90069">
        <ele>194</ele>
        <time>2022-09-05T10:34:04Z</time>
      </trkpt>
      <trkpt lat="46.93133" lon="-0.90073">
        <ele>195</ele>
        <time>2022-09-05T10:34:07Z</time>
      </trkpt>
      <trkpt lat="46.93111" lon="-0.90073">
        <ele>196</ele>
        <time>2022-09-05T10:34:11Z</time>
      </trkpt>
      <trkpt lat="46.92998" lon="-0.90038">
        <ele>197</ele>
        <time>2022-09-05T10:34:31Z</time>
      </trkpt>
      <trkpt lat="46.92883" lon="-0.90002">
        <ele>195</ele>
        <time>2022-09-05T10:34:52Z</time>
      </trkpt>
      <trkpt lat="46.92869" lon="-0.90001">
        <ele>194</ele>
        <time>2022-09-05T10:34:55Z</time>
      </trkpt>
      <trkpt lat="46.92845" lon="-0.90002">
        <ele>194</ele>
        <time>2022-09-05T10:34:59Z</time>
      </trkpt>
      <trkpt lat="46.92841" lon="-0.8999">
        <ele>194</ele>
        <time>2022-09-05T10:35:01Z</time>
      </trkpt>
      <trkpt lat="46.92786" lon="-0.89941">
        <ele>191</ele>
        <time>2022-09-05T10:35:12Z</time>
      </trkpt>
      <trkpt lat="46.92753" lon="-0.89898">
        <ele>189</ele>
        <time>2022-09-05T10:35:20Z</time>
      </trkpt>
      <trkpt lat="46.92611" lon="-0.89688">
        <ele>184</ele>
        <time>2022-09-05T10:35:56Z</time>
      </trkpt>
      <trkpt lat="46.92584" lon="-0.89657">
        <ele>183</ele>
        <time>2022-09-05T10:36:02Z</time>
      </trkpt>
      <trkpt lat="46.92579" lon="-0.89661">
        <ele>183</ele>
        <time>2022-09-05T10:36:03Z</time>
      </trkpt>
      <trkpt lat="46.92572" lon="-0.89659">
        <ele>183</ele>
        <time>2022-09-05T10:36:04Z</time>
      </trkpt>
      <trkpt lat="46.92569" lon="-0.89652">
        <ele>183</ele>
        <time>2022-09-05T10:36:05Z</time>
      </trkpt>
      <trkpt lat="46.9257" lon="-0.89644">
        <ele>183</ele>
        <time>2022-09-05T10:36:06Z</time>
      </trkpt>
      <trkpt lat="46.92496" lon="-0.89577">
        <ele>183</ele>
        <time>2022-09-05T10:36:22Z</time>
      </trkpt>
      <trkpt lat="46.92482" lon="-0.89561">
        <ele>182</ele>
        <time>2022-09-05T10:36:25Z</time>
      </trkpt>
      <trkpt lat="46.92463" lon="-0.89535">
        <ele>182</ele>
        <time>2022-09-05T10:36:29Z</time>
      </trkpt>
      <trkpt lat="46.9232" lon="-0.89305">
        <ele>178</ele>
        <time>2022-09-05T10:37:07Z</time>
      </trkpt>
      <trkpt lat="46.92304" lon="-0.8927">
        <ele>177</ele>
        <time>2022-09-05T10:37:12Z</time>
      </trkpt>
      <trkpt lat="46.92291" lon="-0.89233">
        <ele>176</ele>
        <time>2022-09-05T10:37:17Z</time>
      </trkpt>
      <trkpt lat="46.92267" lon="-0.89148">
        <ele>173</ele>
        <time>2022-09-05T10:37:29Z</time>
      </trkpt>
      <trkpt lat="46.92257" lon="-0.89126">
        <ele>173</ele>
        <time>2022-09-05T10:37:32Z</time>
      </trkpt>
      <trkpt lat="46.92245" lon="-0.89104">
        <ele>172</ele>
        <time>2022-09-05T10:37:35Z</time>
      </trkpt>
      <trkpt lat="46.92203" lon="-0.8904">
        <ele>169</ele>
        <time>2022-09-05T10:37:46Z</time>
      </trkpt>
      <trkpt lat="46.92189" lon="-0.89013">
        <ele>168</ele>
        <time>2022-09-05T10:37:50Z</time>
      </trkpt>
      <trkpt lat="46.92177" lon="-0.88973">
        <ele>167</ele>
        <time>2022-09-05T10:37:55Z</time>
      </trkpt>
      <trkpt lat="46.92167" lon="-0.88926">
        <ele>165</ele>
        <time>2022-09-05T10:38:01Z</time>
      </trkpt>
      <trkpt lat="46.9216" lon="-0.88876">
        <ele>163</ele>
        <time>2022-09-05T10:38:08Z</time>
      </trkpt>
      <trkpt lat="46.92156" lon="-0.88812">
        <ele>161</ele>
        <time>2022-09-05T10:38:15Z</time>
      </trkpt>
      <trkpt lat="46.92143" lon="-0.88718">
        <ele>156</ele>
        <time>2022-09-05T10:38:27Z</time>
      </trkpt>
      <trkpt lat="46.92133" lon="-0.88674">
        <ele>153</ele>
        <time>2022-09-05T10:38:33Z</time>
      </trkpt>
      <trkpt lat="46.92125" lon="-0.88644">
        <ele>152</ele>
        <time>2022-09-05T10:38:37Z</time>
      </trkpt>
      <trkpt lat="46.92115" lon="-0.88623">
        <ele>151</ele>
        <time>2022-09-05T10:38:40Z</time>
      </trkpt>
      <trkpt lat="46.92102" lon="-0.88605">
        <ele>150</ele>
        <time>2022-09-05T10:38:43Z</time>
      </trkpt>
      <trkpt lat="46.92027" lon="-0.88522">
        <ele>144</ele>
        <time>2022-09-05T10:39:00Z</time>
      </trkpt>
      <trkpt lat="46.9197" lon="-0.88445">
        <ele>143</ele>
        <time>2022-09-05T10:39:13Z</time>
      </trkpt>
      <trkpt lat="46.9195" lon="-0.88425">
        <ele>144</ele>
        <time>2022-09-05T10:39:18Z</time>
      </trkpt>
      <trkpt lat="46.91939" lon="-0.88418">
        <ele>145</ele>
        <time>2022-09-05T10:39:20Z</time>
      </trkpt>
      <trkpt lat="46.91752" lon="-0.88319">
        <ele>156</ele>
        <time>2022-09-05T10:39:55Z</time>
      </trkpt>
      <trkpt lat="46.91716" lon="-0.88287">
        <ele>158</ele>
        <time>2022-09-05T10:40:03Z</time>
      </trkpt>
      <trkpt lat="46.91701" lon="-0.88267">
        <ele>159</ele>
        <time>2022-09-05T10:40:06Z</time>
      </trkpt>
      <trkpt lat="46.91462" lon="-0.87838">
        <ele>150</ele>
        <time>2022-09-05T10:41:14Z</time>
      </trkpt>
      <trkpt lat="46.91434" lon="-0.87795">
        <ele>149</ele>
        <time>2022-09-05T10:41:21Z</time>
      </trkpt>
      <trkpt lat="46.91415" lon="-0.8777">
        <ele>149</ele>
        <time>2022-09-05T10:41:25Z</time>
      </trkpt>
      <trkpt lat="46.91372" lon="-0.87733">
        <ele>148</ele>
        <time>2022-09-05T10:41:34Z</time>
      </trkpt>
      <trkpt lat="46.91356" lon="-0.87713">
        <ele>147</ele>
        <time>2022-09-05T10:41:38Z</time>
      </trkpt>
      <trkpt lat="46.91298" lon="-0.87618">
        <ele>144</ele>
        <time>2022-09-05T10:41:54Z</time>
      </trkpt>
      <trkpt lat="46.91287" lon="-0.87592">
        <ele>143</ele>
        <time>2022-09-05T10:41:57Z</time>
      </trkpt>
      <trkpt lat="46.9128" lon="-0.87567">
        <ele>142</ele>
        <time>2022-09-05T10:42:01Z</time>
      </trkpt>
      <trkpt lat="46.91275" lon="-0.8754">
        <ele>140</ele>
        <time>2022-09-05T10:42:04Z</time>
      </trkpt>
      <trkpt lat="46.91259" lon="-0.87401">
        <ele>135</ele>
        <time>2022-09-05T10:42:21Z</time>
      </trkpt>
      <trkpt lat="46.91254" lon="-0.8737">
        <ele>134</ele>
        <time>2022-09-05T10:42:25Z</time>
      </trkpt>
      <trkpt lat="46.91248" lon="-0.87341">
        <ele>133</ele>
        <time>2022-09-05T10:42:29Z</time>
      </trkpt>
      <trkpt lat="46.91164" lon="-0.87138">
        <ele>125</ele>
        <time>2022-09-05T10:42:58Z</time>
      </trkpt>
      <trkpt lat="46.91152" lon="-0.87118">
        <ele>126</ele>
        <time>2022-09-05T10:43:01Z</time>
      </trkpt>
      <trkpt lat="46.91136" lon="-0.87103">
        <ele>127</ele>
        <time>2022-09-05T10:43:04Z</time>
      </trkpt>
      <trkpt lat="46.91133" lon="-0.87105">
        <ele>127</ele>
        <time>2022-09-05T10:43:05Z</time>
      </trkpt>
      <trkpt lat="46.91126" lon="-0.87105">
        <ele>127</ele>
        <time>2022-09-05T10:43:06Z</time>
      </trkpt>
      <trkpt lat="46.91102" lon="-0.87128">
        <ele>128</ele>
        <time>2022-09-05T10:43:11Z</time>
      </trkpt>
      <trkpt lat="46.91091" lon="-0.87134">
        <ele>128</ele>
        <time>2022-09-05T10:43:13Z</time>
      </trkpt>
      <trkpt lat="46.90973" lon="-0.87207">
        <ele>139</ele>
        <time>2022-09-05T10:43:36Z</time>
      </trkpt>
      <trkpt lat="46.90915" lon="-0.87224">
        <ele>145</ele>
        <time>2022-09-05T10:43:46Z</time>
      </trkpt>
      <trkpt lat="46.90533" lon="-0.87282">
        <ele>166</ele>
        <time>2022-09-05T10:44:55Z</time>
      </trkpt>
      <trkpt lat="46.90287" lon="-0.87289">
        <ele>177</ele>
        <time>2022-09-05T10:45:39Z</time>
      </trkpt>
      <trkpt lat="46.90241" lon="-0.8729">
        <ele>178</ele>
        <time>2022-09-05T10:45:47Z</time>
      </trkpt>
      <trkpt lat="46.90212" lon="-0.87293">
        <ele>178</ele>
        <time>2022-09-05T10:45:52Z</time>
      </trkpt>
      <trkpt lat="46.90199" lon="-0.87299">
        <ele>179</ele>
        <time>2022-09-05T10:45:54Z</time>
      </trkpt>
      <trkpt lat="46.90173" lon="-0.87314">
        <ele>180</ele>
        <time>2022-09-05T10:45:59Z</time>
      </trkpt>
      <trkpt lat="46.90158" lon="-0.8733">
        <ele>180</ele>
        <time>2022-09-05T10:46:03Z</time>
      </trkpt>
      <trkpt lat="46.9014" lon="-0.87356">
        <ele>180</ele>
        <time>2022-09-05T10:46:07Z</time>
      </trkpt>
      <trkpt lat="46.90084" lon="-0.87454">
        <ele>181</ele>
        <time>2022-09-05T10:46:23Z</time>
      </trkpt>
      <trkpt lat="46.90063" lon="-0.87482">
        <ele>181</ele>
        <time>2022-09-05T10:46:28Z</time>
      </trkpt>
      <trkpt lat="46.90037" lon="-0.87507">
        <ele>181</ele>
        <time>2022-09-05T10:46:33Z</time>
      </trkpt>
      <trkpt lat="46.8989" lon="-0.87604">
        <ele>188</ele>
        <time>2022-09-05T10:47:02Z</time>
      </trkpt>
      <trkpt lat="46.89869" lon="-0.87614">
        <ele>189</ele>
        <time>2022-09-05T10:47:06Z</time>
      </trkpt>
      <trkpt lat="46.8985" lon="-0.87619">
        <ele>190</ele>
        <time>2022-09-05T10:47:09Z</time>
      </trkpt>
      <trkpt lat="46.89817" lon="-0.87623">
        <ele>191</ele>
        <time>2022-09-05T10:47:15Z</time>
      </trkpt>
      <trkpt lat="46.89702" lon="-0.87625">
        <ele>194</ele>
        <time>2022-09-05T10:47:36Z</time>
      </trkpt>
      <trkpt lat="46.89649" lon="-0.8764">
        <ele>194</ele>
        <time>2022-09-05T10:47:45Z</time>
      </trkpt>
      <trkpt lat="46.89559" lon="-0.87675">
        <ele>191</ele>
        <time>2022-09-05T10:48:02Z</time>
      </trkpt>
      <trkpt lat="46.89492" lon="-0.8771">
        <ele>190</ele>
        <time>2022-09-05T10:48:15Z</time>
      </trkpt>
      <trkpt lat="46.89462" lon="-0.87733">
        <ele>189</ele>
        <time>2022-09-05T10:48:21Z</time>
      </trkpt>
      <trkpt lat="46.89439" lon="-0.87755">
        <ele>189</ele>
        <time>2022-09-05T10:48:25Z</time>
      </trkpt>
      <trkpt lat="46.89419" lon="-0.87779">
        <ele>189</ele>
        <time>2022-09-05T10:48:30Z</time>
      </trkpt>
      <trkpt lat="46.89397" lon="-0.8781">
        <ele>188</ele>
        <time>2022-09-05T10:48:35Z</time>
      </trkpt>
      <trkpt lat="46.89369" lon="-0.87856">
        <ele>188</ele>
        <time>2022-09-05T10:48:43Z</time>
      </trkpt>
      <trkpt lat="46.89344" lon="-0.87905">
        <ele>187</ele>
        <time>2022-09-05T10:48:50Z</time>
      </trkpt>
      <trkpt lat="46.89325" lon="-0.87947">
        <ele>187</ele>
        <time>2022-09-05T10:48:57Z</time>
      </trkpt>
      <trkpt lat="46.89312" lon="-0.87984">
        <ele>187</ele>
        <time>2022-09-05T10:49:02Z</time>
      </trkpt>
      <trkpt lat="46.89303" lon="-0.88019">
        <ele>187</ele>
        <time>2022-09-05T10:49:06Z</time>
      </trkpt>
      <trkpt lat="46.89239" lon="-0.88315">
        <ele>185</ele>
        <time>2022-09-05T10:49:44Z</time>
      </trkpt>
      <trkpt lat="46.89223" lon="-0.88373">
        <ele>183</ele>
        <time>2022-09-05T10:49:51Z</time>
      </trkpt>
      <trkpt lat="46.89199" lon="-0.8844">
        <ele>181</ele>
        <time>2022-09-05T10:50:01Z</time>
      </trkpt>
      <trkpt lat="46.89184" lon="-0.88475">
        <ele>181</ele>
        <time>2022-09-05T10:50:06Z</time>
      </trkpt>
      <trkpt lat="46.89166" lon="-0.8851">
        <ele>180</ele>
        <time>2022-09-05T10:50:11Z</time>
      </trkpt>
      <trkpt lat="46.89082" lon="-0.88644">
        <ele>182</ele>
        <time>2022-09-05T10:50:33Z</time>
      </trkpt>
      <trkpt lat="46.89051" lon="-0.88703">
        <ele>184</ele>
        <time>2022-09-05T10:50:42Z</time>
      </trkpt>
      <trkpt lat="46.89021" lon="-0.88773">
        <ele>185</ele>
        <time>2022-09-05T10:50:52Z</time>
      </trkpt>
      <trkpt lat="46.88969" lon="-0.88912">
        <ele>188</ele>
        <time>2022-09-05T10:51:11Z</time>
      </trkpt>
      <trkpt lat="46.88928" lon="-0.89068">
        <ele>188</ele>
        <time>2022-09-05T10:51:32Z</time>
      </trkpt>
      <trkpt lat="46.88914" lon="-0.89102">
        <ele>188</ele>
        <time>2022-09-05T10:51:37Z</time>
      </trkpt>
      <trkpt lat="46.88861" lon="-0.89207">
        <ele>186</ele>
        <time>2022-09-05T10:51:53Z</time>
      </trkpt>
      <trkpt lat="46.8885" lon="-0.89222">
        <ele>186</ele>
        <time>2022-09-05T10:51:55Z</time>
      </trkpt>
      <trkpt lat="46.88829" lon="-0.89244">
        <ele>185</ele>
        <time>2022-09-05T10:52:00Z</time>
      </trkpt>
      <trkpt lat="46.88816" lon="-0.89252">
        <ele>185</ele>
        <time>2022-09-05T10:52:02Z</time>
      </trkpt>
      <trkpt lat="46.888" lon="-0.89257">
        <ele>185</ele>
        <time>2022-09-05T10:52:05Z</time>
      </trkpt>
      <trkpt lat="46.88775" lon="-0.89255">
        <ele>185</ele>
        <time>2022-09-05T10:52:10Z</time>
      </trkpt>
      <trkpt lat="46.88652" lon="-0.89225">
        <ele>185</ele>
        <time>2022-09-05T10:52:32Z</time>
      </trkpt>
      <trkpt lat="46.88628" lon="-0.89228">
        <ele>184</ele>
        <time>2022-09-05T10:52:36Z</time>
      </trkpt>
      <trkpt lat="46.88615" lon="-0.89236">
        <ele>184</ele>
        <time>2022-09-05T10:52:39Z</time>
      </trkpt>
      <trkpt lat="46.88605" lon="-0.8925">
        <ele>184</ele>
        <time>2022-09-05T10:52:41Z</time>
      </trkpt>
      <trkpt lat="46.88599" lon="-0.89261">
        <ele>184</ele>
        <time>2022-09-05T10:52:43Z</time>
      </trkpt>
      <trkpt lat="46.88591" lon="-0.89291">
        <ele>185</ele>
        <time>2022-09-05T10:52:47Z</time>
      </trkpt>
      <trkpt lat="46.88581" lon="-0.89316">
        <ele>184</ele>
        <time>2022-09-05T10:52:50Z</time>
      </trkpt>
      <trkpt lat="46.8849" lon="-0.89508">
        <ele>174</ele>
        <time>2022-09-05T10:53:19Z</time>
      </trkpt>
      <trkpt lat="46.88452" lon="-0.89594">
        <ele>175</ele>
        <time>2022-09-05T10:53:31Z</time>
      </trkpt>
      <trkpt lat="46.88444" lon="-0.89621">
        <ele>177</ele>
        <time>2022-09-05T10:53:35Z</time>
      </trkpt>
      <trkpt lat="46.88402" lon="-0.89794">
        <ele>184</ele>
        <time>2022-09-05T10:53:57Z</time>
      </trkpt>
      <trkpt lat="46.88369" lon="-0.89913">
        <ele>186</ele>
        <time>2022-09-05T10:54:13Z</time>
      </trkpt>
      <trkpt lat="46.88365" lon="-0.89925">
        <ele>187</ele>
        <time>2022-09-05T10:54:14Z</time>
      </trkpt>
      <trkpt lat="46.88361" lon="-0.8995">
        <ele>188</ele>
        <time>2022-09-05T10:54:17Z</time>
      </trkpt>
      <trkpt lat="46.88362" lon="-0.8999">
        <ele>190</ele>
        <time>2022-09-05T10:54:22Z</time>
      </trkpt>
      <trkpt lat="46.88365" lon="-0.90004">
        <ele>191</ele>
        <time>2022-09-05T10:54:24Z</time>
      </trkpt>
      <trkpt lat="46.8827" lon="-0.90011">
        <ele>185</ele>
        <time>2022-09-05T10:54:41Z</time>
      </trkpt>
      <trkpt lat="46.88029" lon="-0.90036">
        <ele>172</ele>
        <time>2022-09-05T10:55:24Z</time>
      </trkpt>
      <trkpt lat="46.88013" lon="-0.90036">
        <ele>172</ele>
        <time>2022-09-05T10:55:27Z</time>
      </trkpt>
      <trkpt lat="46.87974" lon="-0.90025">
        <ele>173</ele>
        <time>2022-09-05T10:55:34Z</time>
      </trkpt>
      <trkpt lat="46.87967" lon="-0.90028">
        <ele>173</ele>
        <time>2022-09-05T10:55:35Z</time>
      </trkpt>
      <trkpt lat="46.87959" lon="-0.90025">
        <ele>173</ele>
        <time>2022-09-05T10:55:37Z</time>
      </trkpt>
      <trkpt lat="46.87909" lon="-0.90031">
        <ele>174</ele>
        <time>2022-09-05T10:55:46Z</time>
      </trkpt>
      <trkpt lat="46.87897" lon="-0.90035">
        <ele>175</ele>
        <time>2022-09-05T10:55:48Z</time>
      </trkpt>
      <trkpt lat="46.87724" lon="-0.90123">
        <ele>181</ele>
        <time>2022-09-05T10:56:20Z</time>
      </trkpt>
      <trkpt lat="46.87518" lon="-0.90219">
        <ele>185</ele>
        <time>2022-09-05T10:56:59Z</time>
      </trkpt>
      <trkpt lat="46.87487" lon="-0.90239">
        <ele>185</ele>
        <time>2022-09-05T10:57:05Z</time>
      </trkpt>
      <trkpt lat="46.87437" lon="-0.90288">
        <ele>184</ele>
        <time>2022-09-05T10:57:16Z</time>
      </trkpt>
      <trkpt lat="46.87321" lon="-0.90414">
        <ele>183</ele>
        <time>2022-09-05T10:57:41Z</time>
      </trkpt>
      <trkpt lat="46.87303" lon="-0.90449">
        <ele>183</ele>
        <time>2022-09-05T10:57:47Z</time>
      </trkpt>
      <trkpt lat="46.87302" lon="-0.90458">
        <ele>183</ele>
        <time>2022-09-05T10:57:48Z</time>
      </trkpt>
      <trkpt lat="46.873" lon="-0.90469">
        <ele>183</ele>
        <time>2022-09-05T10:57:49Z</time>
      </trkpt>
      <trkpt lat="46.87295" lon="-0.90479">
        <ele>183</ele>
        <time>2022-09-05T10:57:51Z</time>
      </trkpt>
      <trkpt lat="46.87284" lon="-0.90487">
        <ele>183</ele>
        <time>2022-09-05T10:57:53Z</time>
      </trkpt>
      <trkpt lat="46.87277" lon="-0.905">
        <ele>183</ele>
        <time>2022-09-05T10:57:55Z</time>
      </trkpt>
      <trkpt lat="46.87266" lon="-0.90531">
        <ele>183</ele>
        <time>2022-09-05T10:57:59Z</time>
      </trkpt>
      <trkpt lat="46.87213" lon="-0.90684">
        <ele>180</ele>
        <time>2022-09-05T10:58:20Z</time>
      </trkpt>
      <trkpt lat="46.87184" lon="-0.90759">
        <ele>179</ele>
        <time>2022-09-05T10:58:30Z</time>
      </trkpt>
      <trkpt lat="46.87143" lon="-0.90838">
        <ele>179</ele>
        <time>2022-09-05T10:58:42Z</time>
      </trkpt>
      <trkpt lat="46.87054" lon="-0.90977">
        <ele>181</ele>
        <time>2022-09-05T10:59:06Z</time>
      </trkpt>
      <trkpt lat="46.86876" lon="-0.91246">
        <ele>178</ele>
        <time>2022-09-05T10:59:51Z</time>
      </trkpt>
      <trkpt lat="46.86823" lon="-0.91336">
        <ele>173</ele>
        <time>2022-09-05T11:00:06Z</time>
      </trkpt>
      <trkpt lat="46.86783" lon="-0.91421">
        <ele>169</ele>
        <time>2022-09-05T11:00:18Z</time>
      </trkpt>
      <trkpt lat="46.86766" lon="-0.91468">
        <ele>166</ele>
        <time>2022-09-05T11:00:25Z</time>
      </trkpt>
      <trkpt lat="46.86755" lon="-0.91503">
        <ele>164</ele>
        <time>2022-09-05T11:00:29Z</time>
      </trkpt>
      <trkpt lat="46.86746" lon="-0.91547">
        <ele>163</ele>
        <time>2022-09-05T11:00:35Z</time>
      </trkpt>
      <trkpt lat="46.86713" lon="-0.91792">
        <ele>153</ele>
        <time>2022-09-05T11:01:05Z</time>
      </trkpt>
      <trkpt lat="46.86707" lon="-0.91825">
        <ele>151</ele>
        <time>2022-09-05T11:01:09Z</time>
      </trkpt>
      <trkpt lat="46.867" lon="-0.91846">
        <ele>150</ele>
        <time>2022-09-05T11:01:12Z</time>
      </trkpt>
      <trkpt lat="46.86677" lon="-0.91898">
        <ele>148</ele>
        <time>2022-09-05T11:01:20Z</time>
      </trkpt>
      <trkpt lat="46.86666" lon="-0.9192">
        <ele>147</ele>
        <time>2022-09-05T11:01:23Z</time>
      </trkpt>
      <trkpt lat="46.86647" lon="-0.91947">
        <ele>146</ele>
        <time>2022-09-05T11:01:28Z</time>
      </trkpt>
      <trkpt lat="46.86624" lon="-0.91971">
        <ele>146</ele>
        <time>2022-09-05T11:01:33Z</time>
      </trkpt>
      <trkpt lat="46.86543" lon="-0.9204">
        <ele>148</ele>
        <time>2022-09-05T11:01:50Z</time>
      </trkpt>
      <trkpt lat="46.86517" lon="-0.92069">
        <ele>147</ele>
        <time>2022-09-05T11:01:55Z</time>
      </trkpt>
      <trkpt lat="46.86432" lon="-0.92188">
        <ele>143</ele>
        <time>2022-09-05T11:02:16Z</time>
      </trkpt>
      <trkpt lat="46.86319" lon="-0.92359">
        <ele>141</ele>
        <time>2022-09-05T11:02:45Z</time>
      </trkpt>
      <trkpt lat="46.86287" lon="-0.92391">
        <ele>142</ele>
        <time>2022-09-05T11:02:52Z</time>
      </trkpt>
      <trkpt lat="46.86267" lon="-0.92406">
        <ele>142</ele>
        <time>2022-09-05T11:02:56Z</time>
      </trkpt>
      <trkpt lat="46.86213" lon="-0.92434">
        <ele>143</ele>
        <time>2022-09-05T11:03:06Z</time>
      </trkpt>
      <trkpt lat="46.86175" lon="-0.92462">
        <ele>143</ele>
        <time>2022-09-05T11:03:14Z</time>
      </trkpt>
      <trkpt lat="46.86109" lon="-0.92567">
        <ele>141</ele>
        <time>2022-09-05T11:03:31Z</time>
      </trkpt>
      <trkpt lat="46.86089" lon="-0.92588">
        <ele>140</ele>
        <time>2022-09-05T11:03:36Z</time>
      </trkpt>
      <trkpt lat="46.86081" lon="-0.92604">
        <ele>139</ele>
        <time>2022-09-05T11:03:38Z</time>
      </trkpt>
      <trkpt lat="46.86067" lon="-0.92646">
        <ele>137</ele>
        <time>2022-09-05T11:03:44Z</time>
      </trkpt>
      <trkpt lat="46.86052" lon="-0.92705">
        <ele>133</ele>
        <time>2022-09-05T11:03:51Z</time>
      </trkpt>
      <trkpt lat="46.86043" lon="-0.92723">
        <ele>132</ele>
        <time>2022-09-05T11:03:54Z</time>
      </trkpt>
      <trkpt lat="46.86032" lon="-0.92739">
        <ele>132</ele>
        <time>2022-09-05T11:03:57Z</time>
      </trkpt>
      <trkpt lat="46.86014" lon="-0.92759">
        <ele>131</ele>
        <time>2022-09-05T11:04:01Z</time>
      </trkpt>
      <trkpt lat="46.86002" lon="-0.92768">
        <ele>132</ele>
        <time>2022-09-05T11:04:03Z</time>
      </trkpt>
      <trkpt lat="46.85979" lon="-0.92779">
        <ele>132</ele>
        <time>2022-09-05T11:04:08Z</time>
      </trkpt>
      <trkpt lat="46.85961" lon="-0.92781">
        <ele>133</ele>
        <time>2022-09-05T11:04:11Z</time>
      </trkpt>
      <trkpt lat="46.85949" lon="-0.9278">
        <ele>133</ele>
        <time>2022-09-05T11:04:13Z</time>
      </trkpt>
      <trkpt lat="46.85927" lon="-0.92767">
        <ele>134</ele>
        <time>2022-09-05T11:04:17Z</time>
      </trkpt>
      <trkpt lat="46.85897" lon="-0.92745">
        <ele>136</ele>
        <time>2022-09-05T11:04:23Z</time>
      </trkpt>
      <trkpt lat="46.85864" lon="-0.92726">
        <ele>140</ele>
        <time>2022-09-05T11:04:29Z</time>
      </trkpt>
      <trkpt lat="46.85834" lon="-0.92717">
        <ele>142</ele>
        <time>2022-09-05T11:04:35Z</time>
      </trkpt>
      <trkpt lat="46.85808" lon="-0.92718">
        <ele>143</ele>
        <time>2022-09-05T11:04:39Z</time>
      </trkpt>
      <trkpt lat="46.85798" lon="-0.92721">
        <ele>143</ele>
        <time>2022-09-05T11:04:41Z</time>
      </trkpt>
      <trkpt lat="46.85777" lon="-0.92735">
        <ele>143</ele>
        <time>2022-09-05T11:04:45Z</time>
      </trkpt>
      <trkpt lat="46.85749" lon="-0.92774">
        <ele>144</ele>
        <time>2022-09-05T11:04:52Z</time>
      </trkpt>
      <trkpt lat="46.85734" lon="-0.92789">
        <ele>145</ele>
        <time>2022-09-05T11:04:56Z</time>
      </trkpt>
      <trkpt lat="46.85707" lon="-0.9281">
        <ele>146</ele>
        <time>2022-09-05T11:05:01Z</time>
      </trkpt>
      <trkpt lat="46.85685" lon="-0.92823">
        <ele>146</ele>
        <time>2022-09-05T11:05:05Z</time>
      </trkpt>
      <trkpt lat="46.85669" lon="-0.9283">
        <ele>147</ele>
        <time>2022-09-05T11:05:08Z</time>
      </trkpt>
      <trkpt lat="46.85588" lon="-0.92856">
        <ele>154</ele>
        <time>2022-09-05T11:05:23Z</time>
      </trkpt>
      <trkpt lat="46.85562" lon="-0.92872">
        <ele>155</ele>
        <time>2022-09-05T11:05:28Z</time>
      </trkpt>
      <trkpt lat="46.85547" lon="-0.92884">
        <ele>156</ele>
        <time>2022-09-05T11:05:31Z</time>
      </trkpt>
      <trkpt lat="46.85527" lon="-0.92904">
        <ele>157</ele>
        <time>2022-09-05T11:05:35Z</time>
      </trkpt>
      <trkpt lat="46.85505" lon="-0.9293">
        <ele>158</ele>
        <time>2022-09-05T11:05:40Z</time>
      </trkpt>
      <trkpt lat="46.85495" lon="-0.92946">
        <ele>158</ele>
        <time>2022-09-05T11:05:43Z</time>
      </trkpt>
      <trkpt lat="46.85454" lon="-0.93027">
        <ele>158</ele>
        <time>2022-09-05T11:05:55Z</time>
      </trkpt>
      <trkpt lat="46.85425" lon="-0.93075">
        <ele>155</ele>
        <time>2022-09-05T11:06:03Z</time>
      </trkpt>
      <trkpt lat="46.85405" lon="-0.93097">
        <ele>155</ele>
        <time>2022-09-05T11:06:07Z</time>
      </trkpt>
      <trkpt lat="46.85368" lon="-0.93127">
        <ele>156</ele>
        <time>2022-09-05T11:06:15Z</time>
      </trkpt>
      <trkpt lat="46.8525" lon="-0.93206">
        <ele>164</ele>
        <time>2022-09-05T11:06:38Z</time>
      </trkpt>
      <trkpt lat="46.85233" lon="-0.93215">
        <ele>165</ele>
        <time>2022-09-05T11:06:41Z</time>
      </trkpt>
      <trkpt lat="46.85218" lon="-0.93221">
        <ele>165</ele>
        <time>2022-09-05T11:06:44Z</time>
      </trkpt>
      <trkpt lat="46.85201" lon="-0.93223">
        <ele>166</ele>
        <time>2022-09-05T11:06:47Z</time>
      </trkpt>
      <trkpt lat="46.85134" lon="-0.93209">
        <ele>168</ele>
        <time>2022-09-05T11:06:59Z</time>
      </trkpt>
      <trkpt lat="46.85113" lon="-0.93202">
        <ele>168</ele>
        <time>2022-09-05T11:07:03Z</time>
      </trkpt>
      <trkpt lat="46.85097" lon="-0.93194">
        <ele>169</ele>
        <time>2022-09-05T11:07:06Z</time>
      </trkpt>
      <trkpt lat="46.85071" lon="-0.93173">
        <ele>169</ele>
        <time>2022-09-05T11:07:11Z</time>
      </trkpt>
      <trkpt lat="46.85052" lon="-0.9316">
        <ele>170</ele>
        <time>2022-09-05T11:07:15Z</time>
      </trkpt>
      <trkpt lat="46.85044" lon="-0.93159">
        <ele>170</ele>
        <time>2022-09-05T11:07:16Z</time>
      </trkpt>
      <trkpt lat="46.85019" lon="-0.93166">
        <ele>169</ele>
        <time>2022-09-05T11:07:21Z</time>
      </trkpt>
      <trkpt lat="46.85005" lon="-0.93161">
        <ele>169</ele>
        <time>2022-09-05T11:07:24Z</time>
      </trkpt>
      <trkpt lat="46.84893" lon="-0.93098">
        <ele>169</ele>
        <time>2022-09-05T11:07:45Z</time>
      </trkpt>
      <trkpt lat="46.84868" lon="-0.93094">
        <ele>169</ele>
        <time>2022-09-05T11:07:49Z</time>
      </trkpt>
      <trkpt lat="46.84795" lon="-0.93101">
        <ele>169</ele>
        <time>2022-09-05T11:08:02Z</time>
      </trkpt>
      <trkpt lat="46.84759" lon="-0.93112">
        <ele>169</ele>
        <time>2022-09-05T11:08:09Z</time>
      </trkpt>
      <trkpt lat="46.84675" lon="-0.93155">
        <ele>168</ele>
        <time>2022-09-05T11:08:25Z</time>
      </trkpt>
      <trkpt lat="46.84591" lon="-0.93209">
        <ele>170</ele>
        <time>2022-09-05T11:08:41Z</time>
      </trkpt>
      <trkpt lat="46.84406" lon="-0.93322">
        <ele>165</ele>
        <time>2022-09-05T11:09:17Z</time>
      </trkpt>
      <trkpt lat="46.84338" lon="-0.93361">
        <ele>165</ele>
        <time>2022-09-05T11:09:30Z</time>
      </trkpt>
      <trkpt lat="46.84319" lon="-0.93367">
        <ele>165</ele>
        <time>2022-09-05T11:09:33Z</time>
      </trkpt>
      <trkpt lat="46.84303" lon="-0.9337">
        <ele>164</ele>
        <time>2022-09-05T11:09:36Z</time>
      </trkpt>
      <trkpt lat="46.84286" lon="-0.9337">
        <ele>164</ele>
        <time>2022-09-05T11:09:39Z</time>
      </trkpt>
      <trkpt lat="46.84139" lon="-0.93343">
        <ele>165</ele>
        <time>2022-09-05T11:10:05Z</time>
      </trkpt>
      <trkpt lat="46.84113" lon="-0.93335">
        <ele>165</ele>
        <time>2022-09-05T11:10:10Z</time>
      </trkpt>
      <trkpt lat="46.84089" lon="-0.93325">
        <ele>164</ele>
        <time>2022-09-05T11:10:15Z</time>
      </trkpt>
      <trkpt lat="46.84027" lon="-0.9329">
        <ele>165</ele>
        <time>2022-09-05T11:10:26Z</time>
      </trkpt>
      <trkpt lat="46.84003" lon="-0.9328">
        <ele>165</ele>
        <time>2022-09-05T11:10:31Z</time>
      </trkpt>
      <trkpt lat="46.83991" lon="-0.93278">
        <ele>165</ele>
        <time>2022-09-05T11:10:33Z</time>
      </trkpt>
      <trkpt lat="46.83978" lon="-0.93278">
        <ele>165</ele>
        <time>2022-09-05T11:10:35Z</time>
      </trkpt>
      <trkpt lat="46.8391" lon="-0.93305">
        <ele>164</ele>
        <time>2022-09-05T11:10:48Z</time>
      </trkpt>
      <trkpt lat="46.83799" lon="-0.93326">
        <ele>164</ele>
        <time>2022-09-05T11:11:08Z</time>
      </trkpt>
      <trkpt lat="46.83764" lon="-0.93326">
        <ele>164</ele>
        <time>2022-09-05T11:11:14Z</time>
      </trkpt>
      <trkpt lat="46.83648" lon="-0.93302">
        <ele>163</ele>
        <time>2022-09-05T11:11:35Z</time>
      </trkpt>
      <trkpt lat="46.83575" lon="-0.93273">
        <ele>160</ele>
        <time>2022-09-05T11:11:48Z</time>
      </trkpt>
      <trkpt lat="46.83557" lon="-0.93266">
        <ele>159</ele>
        <time>2022-09-05T11:11:52Z</time>
      </trkpt>
      <trkpt lat="46.83539" lon="-0.93263">
        <ele>158</ele>
        <time>2022-09-05T11:11:55Z</time>
      </trkpt>
      <trkpt lat="46.83503" lon="-0.93267">
        <ele>157</ele>
        <time>2022-09-05T11:12:01Z</time>
      </trkpt>
      <trkpt lat="46.83449" lon="-0.93279">
        <ele>157</ele>
        <time>2022-09-05T11:12:11Z</time>
      </trkpt>
      <trkpt lat="46.83397" lon="-0.93282">
        <ele>156</ele>
        <time>2022-09-05T11:12:20Z</time>
      </trkpt>
      <trkpt lat="46.83348" lon="-0.93273">
        <ele>154</ele>
        <time>2022-09-05T11:12:29Z</time>
      </trkpt>
      <trkpt lat="46.83305" lon="-0.93284">
        <ele>152</ele>
        <time>2022-09-05T11:12:37Z</time>
      </trkpt>
      <trkpt lat="46.83282" lon="-0.93286">
        <ele>151</ele>
        <time>2022-09-05T11:12:41Z</time>
      </trkpt>
      <trkpt lat="46.83242" lon="-0.93283">
        <ele>149</ele>
        <time>2022-09-05T11:12:48Z</time>
      </trkpt>
      <trkpt lat="46.82927" lon="-0.93273">
        <ele>135</ele>
        <time>2022-09-05T11:13:44Z</time>
      </trkpt>
      <trkpt lat="46.82912" lon="-0.9327">
        <ele>135</ele>
        <time>2022-09-05T11:13:47Z</time>
      </trkpt>
      <trkpt lat="46.82877" lon="-0.93254">
        <ele>133</ele>
        <time>2022-09-05T11:13:53Z</time>
      </trkpt>
      <trkpt lat="46.82793" lon="-0.93186">
        <ele>134</ele>
        <time>2022-09-05T11:14:10Z</time>
      </trkpt>
      <trkpt lat="46.82747" lon="-0.93162">
        <ele>135</ele>
        <time>2022-09-05T11:14:19Z</time>
      </trkpt>
      <trkpt lat="46.82759" lon="-0.93623">
        <ele>127</ele>
        <time>2022-09-05T11:15:15Z</time>
      </trkpt>
      <trkpt lat="46.82774" lon="-0.93936">
        <ele>125</ele>
        <time>2022-09-05T11:15:53Z</time>
      </trkpt>
      <trkpt lat="46.82779" lon="-0.94125">
        <ele>129</ele>
        <time>2022-09-05T11:16:17Z</time>
      </trkpt>
      <trkpt lat="46.82784" lon="-0.94183">
        <ele>130</ele>
        <time>2022-09-05T11:16:24Z</time>
      </trkpt>
      <trkpt lat="46.82799" lon="-0.94227">
        <ele>130</ele>
        <time>2022-09-05T11:16:30Z</time>
      </trkpt>
      <trkpt lat="46.82832" lon="-0.94284">
        <ele>129</ele>
        <time>2022-09-05T11:16:39Z</time>
      </trkpt>
      <trkpt lat="46.82903" lon="-0.94357">
        <ele>129</ele>
        <time>2022-09-05T11:16:54Z</time>
      </trkpt>
      <trkpt lat="46.82924" lon="-0.94396">
        <ele>129</ele>
        <time>2022-09-05T11:17:00Z</time>
      </trkpt>
      <trkpt lat="46.82936" lon="-0.94438">
        <ele>129</ele>
        <time>2022-09-05T11:17:06Z</time>
      </trkpt>
      <trkpt lat="46.82935" lon="-0.94493">
        <ele>129</ele>
        <time>2022-09-05T11:17:12Z</time>
      </trkpt>
      <trkpt lat="46.82906" lon="-0.9478">
        <ele>128</ele>
        <time>2022-09-05T11:17:48Z</time>
      </trkpt>
      <trkpt lat="46.82891" lon="-0.94843">
        <ele>128</ele>
        <time>2022-09-05T11:17:56Z</time>
      </trkpt>
      <trkpt lat="46.82838" lon="-0.9497">
        <ele>128</ele>
        <time>2022-09-05T11:18:14Z</time>
      </trkpt>
      <trkpt lat="46.82775" lon="-0.9516">
        <ele>128</ele>
        <time>2022-09-05T11:18:40Z</time>
      </trkpt>
      <trkpt lat="46.82752" lon="-0.95207">
        <ele>128</ele>
        <time>2022-09-05T11:18:47Z</time>
      </trkpt>
      <trkpt lat="46.82708" lon="-0.9528">
        <ele>127</ele>
        <time>2022-09-05T11:18:59Z</time>
      </trkpt>
      <trkpt lat="46.82684" lon="-0.95359">
        <ele>127</ele>
        <time>2022-09-05T11:19:09Z</time>
      </trkpt>
      <trkpt lat="46.82652" lon="-0.95445">
        <ele>126</ele>
        <time>2022-09-05T11:19:21Z</time>
      </trkpt>
      <trkpt lat="46.82537" lon="-0.95598">
        <ele>124</ele>
        <time>2022-09-05T11:19:49Z</time>
      </trkpt>
      <trkpt lat="46.82525" lon="-0.95626">
        <ele>124</ele>
        <time>2022-09-05T11:19:53Z</time>
      </trkpt>
      <trkpt lat="46.82516" lon="-0.95714">
        <ele>124</ele>
        <time>2022-09-05T11:20:04Z</time>
      </trkpt>
      <trkpt lat="46.82492" lon="-0.95899">
        <ele>124</ele>
        <time>2022-09-05T11:20:26Z</time>
      </trkpt>
      <trkpt lat="46.8247" lon="-0.9601">
        <ele>122</ele>
        <time>2022-09-05T11:20:41Z</time>
      </trkpt>
      <trkpt lat="46.82457" lon="-0.96067">
        <ele>121</ele>
        <time>2022-09-05T11:20:48Z</time>
      </trkpt>
      <trkpt lat="46.82465" lon="-0.96185">
        <ele>121</ele>
        <time>2022-09-05T11:21:02Z</time>
      </trkpt>
      <trkpt lat="46.82441" lon="-0.96336">
        <ele>125</ele>
        <time>2022-09-05T11:21:21Z</time>
      </trkpt>
      <trkpt lat="46.82409" lon="-0.96613">
        <ele>126</ele>
        <time>2022-09-05T11:21:55Z</time>
      </trkpt>
      <trkpt lat="46.82403" lon="-0.96685">
        <ele>125</ele>
        <time>2022-09-05T11:22:04Z</time>
      </trkpt>
      <trkpt lat="46.82405" lon="-0.9676">
        <ele>125</ele>
        <time>2022-09-05T11:22:13Z</time>
      </trkpt>
      <trkpt lat="46.82399" lon="-0.96899">
        <ele>124</ele>
        <time>2022-09-05T11:22:30Z</time>
      </trkpt>
      <trkpt lat="46.82411" lon="-0.97087">
        <ele>127</ele>
        <time>2022-09-05T11:22:53Z</time>
      </trkpt>
      <trkpt lat="46.82423" lon="-0.97203">
        <ele>127</ele>
        <time>2022-09-05T11:23:08Z</time>
      </trkpt>
      <trkpt lat="46.82483" lon="-0.97403">
        <ele>121</ele>
        <time>2022-09-05T11:23:34Z</time>
      </trkpt>
      <trkpt lat="46.8249" lon="-0.97452">
        <ele>120</ele>
        <time>2022-09-05T11:23:40Z</time>
      </trkpt>
      <trkpt lat="46.8249" lon="-0.97483">
        <ele>119</ele>
        <time>2022-09-05T11:23:44Z</time>
      </trkpt>
      <trkpt lat="46.82484" lon="-0.97521">
        <ele>118</ele>
        <time>2022-09-05T11:23:49Z</time>
      </trkpt>
      <trkpt lat="46.82455" lon="-0.97604">
        <ele>118</ele>
        <time>2022-09-05T11:24:00Z</time>
      </trkpt>
      <trkpt lat="46.82452" lon="-0.97621">
        <ele>118</ele>
        <time>2022-09-05T11:24:02Z</time>
      </trkpt>
      <trkpt lat="46.82454" lon="-0.97642">
        <ele>117</ele>
        <time>2022-09-05T11:24:05Z</time>
      </trkpt>
      <trkpt lat="46.8247" lon="-0.97708">
        <ele>116</ele>
        <time>2022-09-05T11:24:13Z</time>
      </trkpt>
      <trkpt lat="46.82507" lon="-0.9793">
        <ele>116</ele>
        <time>2022-09-05T11:24:41Z</time>
      </trkpt>
      <trkpt lat="46.82507" lon="-0.98018">
        <ele>116</ele>
        <time>2022-09-05T11:24:52Z</time>
      </trkpt>
      <trkpt lat="46.82503" lon="-0.98052">
        <ele>115</ele>
        <time>2022-09-05T11:24:56Z</time>
      </trkpt>
      <trkpt lat="46.82488" lon="-0.98134">
        <ele>112</ele>
        <time>2022-09-05T11:25:06Z</time>
      </trkpt>
      <trkpt lat="46.82479" lon="-0.98164">
        <ele>112</ele>
        <time>2022-09-05T11:25:10Z</time>
      </trkpt>
      <trkpt lat="46.82409" lon="-0.98342">
        <ele>111</ele>
        <time>2022-09-05T11:25:35Z</time>
      </trkpt>
      <trkpt lat="46.82406" lon="-0.98411">
        <ele>112</ele>
        <time>2022-09-05T11:25:44Z</time>
      </trkpt>
      <trkpt lat="46.82398" lon="-0.9844">
        <ele>112</ele>
        <time>2022-09-05T11:25:48Z</time>
      </trkpt>
      <trkpt lat="46.82368" lon="-0.98523">
        <ele>111</ele>
        <time>2022-09-05T11:25:59Z</time>
      </trkpt>
      <trkpt lat="46.82352" lon="-0.9854">
        <ele>111</ele>
        <time>2022-09-05T11:26:03Z</time>
      </trkpt>
      <trkpt lat="46.82351" lon="-0.98561">
        <ele>112</ele>
        <time>2022-09-05T11:26:05Z</time>
      </trkpt>
      <trkpt lat="46.82378" lon="-0.98621">
        <ele>114</ele>
        <time>2022-09-05T11:26:14Z</time>
      </trkpt>
      <trkpt lat="46.82396" lon="-0.98686">
        <ele>115</ele>
        <time>2022-09-05T11:26:22Z</time>
      </trkpt>
      <trkpt lat="46.82403" lon="-0.98746">
        <ele>117</ele>
        <time>2022-09-05T11:26:30Z</time>
      </trkpt>
      <trkpt lat="46.82377" lon="-0.98853">
        <ele>118</ele>
        <time>2022-09-05T11:26:44Z</time>
      </trkpt>
      <trkpt lat="46.82288" lon="-0.99106">
        <ele>118</ele>
        <time>2022-09-05T11:27:18Z</time>
      </trkpt>
      <trkpt lat="46.82253" lon="-0.99221">
        <ele>118</ele>
        <time>2022-09-05T11:27:34Z</time>
      </trkpt>
      <trkpt lat="46.8224" lon="-0.99256">
        <ele>117</ele>
        <time>2022-09-05T11:27:38Z</time>
      </trkpt>
      <trkpt lat="46.82254" lon="-0.99322">
        <ele>114</ele>
        <time>2022-09-05T11:27:47Z</time>
      </trkpt>
      <trkpt lat="46.8226" lon="-0.99367">
        <ele>113</ele>
        <time>2022-09-05T11:27:52Z</time>
      </trkpt>
      <trkpt lat="46.82259" lon="-0.99448">
        <ele>110</ele>
        <time>2022-09-05T11:28:02Z</time>
      </trkpt>
      <trkpt lat="46.82258" lon="-0.99481">
        <ele>108</ele>
        <time>2022-09-05T11:28:06Z</time>
      </trkpt>
      <trkpt lat="46.82263" lon="-0.99517">
        <ele>105</ele>
        <time>2022-09-05T11:28:11Z</time>
      </trkpt>
      <trkpt lat="46.82277" lon="-0.99562">
        <ele>103</ele>
        <time>2022-09-05T11:28:17Z</time>
      </trkpt>
      <trkpt lat="46.82278" lon="-0.99571">
        <ele>102</ele>
        <time>2022-09-05T11:28:18Z</time>
      </trkpt>
      <trkpt lat="46.82278" lon="-0.99582">
        <ele>101</ele>
        <time>2022-09-05T11:28:19Z</time>
      </trkpt>
      <trkpt lat="46.82262" lon="-0.99624">
        <ele>97</ele>
        <time>2022-09-05T11:28:25Z</time>
      </trkpt>
      <trkpt lat="46.82254" lon="-0.99662">
        <ele>94</ele>
        <time>2022-09-05T11:28:30Z</time>
      </trkpt>
      <trkpt lat="46.82246" lon="-0.99691">
        <ele>93</ele>
        <time>2022-09-05T11:28:34Z</time>
      </trkpt>
      <trkpt lat="46.82235" lon="-0.99715">
        <ele>92</ele>
        <time>2022-09-05T11:28:37Z</time>
      </trkpt>
      <trkpt lat="46.82225" lon="-0.99726">
        <ele>92</ele>
        <time>2022-09-05T11:28:39Z</time>
      </trkpt>
      <trkpt lat="46.82219" lon="-0.99742">
        <ele>91</ele>
        <time>2022-09-05T11:28:42Z</time>
      </trkpt>
      <trkpt lat="46.82222" lon="-0.9976">
        <ele>90</ele>
        <time>2022-09-05T11:28:44Z</time>
      </trkpt>
      <trkpt lat="46.82237" lon="-0.99809">
        <ele>88</ele>
        <time>2022-09-05T11:28:51Z</time>
      </trkpt>
      <trkpt lat="46.82262" lon="-0.9987">
        <ele>89</ele>
        <time>2022-09-05T11:28:59Z</time>
      </trkpt>
      <trkpt lat="46.82265" lon="-0.9987">
        <ele>89</ele>
        <time>2022-09-05T11:29:00Z</time>
      </trkpt>
      <trkpt lat="46.82316" lon="-0.99917">
        <ele>96</ele>
        <time>2022-09-05T11:29:10Z</time>
      </trkpt>
      <trkpt lat="46.82355" lon="-0.99958">
        <ele>100</ele>
        <time>2022-09-05T11:29:19Z</time>
      </trkpt>
      <trkpt lat="46.82372" lon="-0.99987">
        <ele>102</ele>
        <time>2022-09-05T11:29:24Z</time>
      </trkpt>
      <trkpt lat="46.82381" lon="-1.00009">
        <ele>103</ele>
        <time>2022-09-05T11:29:27Z</time>
      </trkpt>
      <trkpt lat="46.82453" lon="-1.0018">
        <ele>108</ele>
        <time>2022-09-05T11:29:51Z</time>
      </trkpt>
      <trkpt lat="46.82474" lon="-1.00222">
        <ele>109</ele>
        <time>2022-09-05T11:29:58Z</time>
      </trkpt>
      <trkpt lat="46.82491" lon="-1.00245">
        <ele>110</ele>
        <time>2022-09-05T11:30:02Z</time>
      </trkpt>
      <trkpt lat="46.8251" lon="-1.00263">
        <ele>111</ele>
        <time>2022-09-05T11:30:06Z</time>
      </trkpt>
      <trkpt lat="46.82525" lon="-1.00271">
        <ele>112</ele>
        <time>2022-09-05T11:30:09Z</time>
      </trkpt>
      <trkpt lat="46.82549" lon="-1.00282">
        <ele>113</ele>
        <time>2022-09-05T11:30:13Z</time>
      </trkpt>
      <trkpt lat="46.82668" lon="-1.00304">
        <ele>115</ele>
        <time>2022-09-05T11:30:34Z</time>
      </trkpt>
      <trkpt lat="46.82681" lon="-1.00303">
        <ele>114</ele>
        <time>2022-09-05T11:30:37Z</time>
      </trkpt>
      <trkpt lat="46.82749" lon="-1.0027">
        <ele>112</ele>
        <time>2022-09-05T11:30:49Z</time>
      </trkpt>
      <trkpt lat="46.82822" lon="-1.00257">
        <ele>110</ele>
        <time>2022-09-05T11:31:02Z</time>
      </trkpt>
      <trkpt lat="46.82826" lon="-1.00254">
        <ele>110</ele>
        <time>2022-09-05T11:31:03Z</time>
      </trkpt>
      <trkpt lat="46.82843" lon="-1.00277">
        <ele>111</ele>
        <time>2022-09-05T11:31:07Z</time>
      </trkpt>
      <trkpt lat="46.8288" lon="-1.00315">
        <ele>112</ele>
        <time>2022-09-05T11:31:15Z</time>
      </trkpt>
      <trkpt lat="46.82896" lon="-1.00326">
        <ele>112</ele>
        <time>2022-09-05T11:31:19Z</time>
      </trkpt>
      <trkpt lat="46.82918" lon="-1.00337">
        <ele>112</ele>
        <time>2022-09-05T11:31:23Z</time>
      </trkpt>
      <trkpt lat="46.82942" lon="-1.00346">
        <ele>113</ele>
        <time>2022-09-05T11:31:27Z</time>
      </trkpt>
      <trkpt lat="46.82971" lon="-1.00352">
        <ele>114</ele>
        <time>2022-09-05T11:31:32Z</time>
      </trkpt>
      <trkpt lat="46.83152" lon="-1.00367">
        <ele>121</ele>
        <time>2022-09-05T11:32:05Z</time>
      </trkpt>
      <trkpt lat="46.83326" lon="-1.00377">
        <ele>126</ele>
        <time>2022-09-05T11:32:36Z</time>
      </trkpt>
      <trkpt lat="46.83506" lon="-1.00398">
        <ele>127</ele>
        <time>2022-09-05T11:33:08Z</time>
      </trkpt>
      <trkpt lat="46.83613" lon="-1.00403">
        <ele>129</ele>
        <time>2022-09-05T11:33:27Z</time>
      </trkpt>
      <trkpt lat="46.83871" lon="-1.00422">
        <ele>126</ele>
        <time>2022-09-05T11:34:13Z</time>
      </trkpt>
      <trkpt lat="46.83875" lon="-1.00435">
        <ele>125</ele>
        <time>2022-09-05T11:34:14Z</time>
      </trkpt>
      <trkpt lat="46.84435" lon="-1.0048">
        <ele>113</ele>
        <time>2022-09-05T11:35:54Z</time>
      </trkpt>
      <trkpt lat="46.84453" lon="-1.00495">
        <ele>112</ele>
        <time>2022-09-05T11:35:58Z</time>
      </trkpt>
      <trkpt lat="46.84479" lon="-1.00513">
        <ele>112</ele>
        <time>2022-09-05T11:36:03Z</time>
      </trkpt>
      <trkpt lat="46.84486" lon="-1.00515">
        <ele>111</ele>
        <time>2022-09-05T11:36:04Z</time>
      </trkpt>
      <trkpt lat="46.84496" lon="-1.00512">
        <ele>111</ele>
        <time>2022-09-05T11:36:06Z</time>
      </trkpt>
      <trkpt lat="46.84505" lon="-1.005">
        <ele>111</ele>
        <time>2022-09-05T11:36:08Z</time>
      </trkpt>
      <trkpt lat="46.84522" lon="-1.00487">
        <ele>111</ele>
        <time>2022-09-05T11:36:12Z</time>
      </trkpt>
      <trkpt lat="46.84531" lon="-1.00484">
        <ele>111</ele>
        <time>2022-09-05T11:36:13Z</time>
      </trkpt>
      <trkpt lat="46.8455" lon="-1.00485">
        <ele>111</ele>
        <time>2022-09-05T11:36:17Z</time>
      </trkpt>
      <trkpt lat="46.84623" lon="-1.00474">
        <ele>112</ele>
        <time>2022-09-05T11:36:30Z</time>
      </trkpt>
      <trkpt lat="46.84695" lon="-1.00451">
        <ele>114</ele>
        <time>2022-09-05T11:36:43Z</time>
      </trkpt>
      <trkpt lat="46.8475" lon="-1.0043">
        <ele>116</ele>
        <time>2022-09-05T11:36:53Z</time>
      </trkpt>
      <trkpt lat="46.84765" lon="-1.00426">
        <ele>116</ele>
        <time>2022-09-05T11:36:56Z</time>
      </trkpt>
      <trkpt lat="46.8478" lon="-1.00418">
        <ele>116</ele>
        <time>2022-09-05T11:36:59Z</time>
      </trkpt>
      <trkpt lat="46.84782" lon="-1.00414">
        <ele>116</ele>
        <time>2022-09-05T11:36:59Z</time>
      </trkpt>
      <trkpt lat="46.84793" lon="-1.00407">
        <ele>115</ele>
        <time>2022-09-05T11:37:01Z</time>
      </trkpt>
      <trkpt lat="46.84792" lon="-1.004">
        <ele>115</ele>
        <time>2022-09-05T11:37:02Z</time>
      </trkpt>
      <trkpt lat="46.84828" lon="-1.0039">
        <ele>115</ele>
        <time>2022-09-05T11:37:09Z</time>
      </trkpt>
      <trkpt lat="46.84873" lon="-1.0038">
        <ele>114</ele>
        <time>2022-09-05T11:37:17Z</time>
      </trkpt>
      <trkpt lat="46.84918" lon="-1.00379">
        <ele>114</ele>
        <time>2022-09-05T11:37:25Z</time>
      </trkpt>
      <trkpt lat="46.84956" lon="-1.00381">
        <ele>113</ele>
        <time>2022-09-05T11:37:32Z</time>
      </trkpt>
      <trkpt lat="46.84987" lon="-1.00387">
        <ele>113</ele>
        <time>2022-09-05T11:37:37Z</time>
      </trkpt>
      <trkpt lat="46.85042" lon="-1.00404">
        <ele>112</ele>
        <time>2022-09-05T11:37:47Z</time>
      </trkpt>
      <trkpt lat="46.85102" lon="-1.0044">
        <ele>110</ele>
        <time>2022-09-05T11:37:59Z</time>
      </trkpt>
      <trkpt lat="46.85261" lon="-1.00556">
        <ele>110</ele>
        <time>2022-09-05T11:38:30Z</time>
      </trkpt>
      <trkpt lat="46.85285" lon="-1.00572">
        <ele>110</ele>
        <time>2022-09-05T11:38:35Z</time>
      </trkpt>
      <trkpt lat="46.8534" lon="-1.00587">
        <ele>109</ele>
        <time>2022-09-05T11:38:45Z</time>
      </trkpt>
      <trkpt lat="46.85442" lon="-1.00633">
        <ele>108</ele>
        <time>2022-09-05T11:39:04Z</time>
      </trkpt>
      <trkpt lat="46.85483" lon="-1.00655">
        <ele>108</ele>
        <time>2022-09-05T11:39:12Z</time>
      </trkpt>
      <trkpt lat="46.85539" lon="-1.00693">
        <ele>108</ele>
        <time>2022-09-05T11:39:23Z</time>
      </trkpt>
      <trkpt lat="46.85562" lon="-1.00711">
        <ele>108</ele>
        <time>2022-09-05T11:39:27Z</time>
      </trkpt>
      <trkpt lat="46.85689" lon="-1.0083">
        <ele>112</ele>
        <time>2022-09-05T11:39:54Z</time>
      </trkpt>
      <trkpt lat="46.85838" lon="-1.00917">
        <ele>113</ele>
        <time>2022-09-05T11:40:23Z</time>
      </trkpt>
      <trkpt lat="46.8584" lon="-1.00911">
        <ele>113</ele>
        <time>2022-09-05T11:40:24Z</time>
      </trkpt>
      <trkpt lat="46.85848" lon="-1.00905">
        <ele>113</ele>
        <time>2022-09-05T11:40:25Z</time>
      </trkpt>
      <trkpt lat="46.85852" lon="-1.00904">
        <ele>113</ele>
        <time>2022-09-05T11:40:26Z</time>
      </trkpt>
      <trkpt lat="46.85873" lon="-1.00879">
        <ele>113</ele>
        <time>2022-09-05T11:40:31Z</time>
      </trkpt>
      <trkpt lat="46.85992" lon="-1.00579">
        <ele>113</ele>
        <time>2022-09-05T11:41:13Z</time>
      </trkpt>
      <trkpt lat="46.86004" lon="-1.00541">
        <ele>114</ele>
        <time>2022-09-05T11:41:18Z</time>
      </trkpt>
      <trkpt lat="46.86041" lon="-1.00409">
        <ele>115</ele>
        <time>2022-09-05T11:41:35Z</time>
      </trkpt>
      <trkpt lat="46.8614" lon="-1.00467">
        <ele>116</ele>
        <time>2022-09-05T11:41:54Z</time>
      </trkpt>
      <trkpt lat="46.8617" lon="-1.00489">
        <ele>115</ele>
        <time>2022-09-05T11:42:00Z</time>
      </trkpt>
      <trkpt lat="46.86189" lon="-1.00512">
        <ele>115</ele>
        <time>2022-09-05T11:42:05Z</time>
      </trkpt>
      <trkpt lat="46.86228" lon="-1.00664">
        <ele>117</ele>
        <time>2022-09-05T11:42:24Z</time>
      </trkpt>
      <trkpt lat="46.86234" lon="-1.00681">
        <ele>117</ele>
        <time>2022-09-05T11:42:27Z</time>
      </trkpt>
      <trkpt lat="46.8627" lon="-1.00662">
        <ele>118</ele>
        <time>2022-09-05T11:42:34Z</time>
      </trkpt>
      <trkpt lat="46.86315" lon="-1.00632">
        <ele>119</ele>
        <time>2022-09-05T11:42:42Z</time>
      </trkpt>
      <trkpt lat="46.86335" lon="-1.00614">
        <ele>119</ele>
        <time>2022-09-05T11:42:47Z</time>
      </trkpt>
      <trkpt lat="46.86368" lon="-1.00577">
        <ele>120</ele>
        <time>2022-09-05T11:42:54Z</time>
      </trkpt>
    </trkseg>
  </trk>
</gpx>